     2              OBSERVATION DATA    GPS                 RINEX VERSION / TYPE
ASRINEXO V2.9.7 UX USGS/MENLO_PARK 27-APR-01 13:18          PGM / RUN BY / DATE
                                                            COMMENT
BIT 2 OF LLI (+4) FLAGS DATA COLLECTED UNDER "AS" CONDITION COMMENT
BIT 2 OF LLI (+4) FLAGS DATA COLLECTED UNDER "AS" CONDITION COMMENT
BIT 2 OF LLI (+4) FLAGS DATA COLLECTED UNDER "AS" CONDITION COMMENT
BIT 2 OF LLI (+4) FLAGS DATA COLLECTED UNDER "AS" CONDITION COMMENT
BIT 2 OF LLI (+4) FLAGS DATA COLLECTED UNDER "AS" CONDITION COMMENT
BIT 2 OF LLI (+4) FLAGS DATA COLLECTED UNDER "AS" CONDITION COMMENT
BIT 2 OF LLI (+4) FLAGS DATA COLLECTED UNDER "AS" CONDITION COMMENT
BIT 2 OF LLI (+4) FLAGS DATA COLLECTED UNDER "AS" CONDITION COMMENT
Original Marker Name: lae4 LAPE4__T8nR6e_S34S35_1974_SBCo   COMMENT
Campaign Name: USGS Profiles                                COMMENT
4-Character Station Name: LAE4                              COMMENT
6-Character Antenna Code: DMRCHT                            COMMENT
Vertical Measurement Point: BCR                             COMMENT
Vertical Offset to Rinex Ref. Point: 0.0348                 COMMENT
Radial Measurement Point: ECF                               COMMENT
Radial Offset to Rinex Ref. Point: 0.1897                   COMMENT
Antenna Height from Field Measurement: 1.1830 m             COMMENT
Additional Antenna Identification Info.:                    COMMENT
Turborogue and Ashtech Choke Ring                           COMMENT
Original XYZ: -2327548.0494 -4703420.6165 3614043.5089      COMMENT
New XYZ position is based on association with SCEC monument COMMENT
E1F2L0E7+0011. Position of that monument is believed to be  COMMENT
valid to within 1 m horizontally; vertical accuracy         COMMENT
should be no worse than 3-times this value.                 COMMENT
                                                            COMMENT
Revised Rinex header created by UCSD GPS archive for        COMMENT
GSAC on 07-Jun-2001 (2001:158) 17:32:19 GMT                 COMMENT
For assistance contact dagnew@ucsd.edu                      COMMENT
or anderson@python.ucsd.edu                                 COMMENT
                                                            COMMENT
T8N R6E 534 535 53 52 T74 1974                              MARKER NAME
GDH US GEOLOGICAL SURVEY                                    OBSERVER / AGENCY
LP03360 ASHTECH Z-XII3 CC00                                 REC # / TYPE / VERS
CR14330 DORNE-MARGOL. TYPE T                                ANT # / TYPE
 -2327539.9032 -4703389.9571  3614017.2523                  APPROX POSITION XYZ
        1.1329        0.0000        0.0000                  ANTENNA: DELTA H/E/N
     1     1     0                                          WAVELENGTH FACT L1/2
     5    C1    L1    L2    P1    P2                        # / TYPES OF OBSERV
    30                                                      INTERVAL
  2001     4    25    22    40   30.000000                  TIME OF FIRST OBS
  2001     4    25    23    59    0.000000                  TIME OF LAST OBS
                                                            END OF HEADER
 01  4 25 22 40 30.0000000  0  8 22 21 18 17 15 06 26 23
  23588143.351    -1414761.934 7  -1101029.46645  23588142.219    23588156.6064
  23570566.867    -1769095.596 8  -1366789.88845  23570566.616    23570583.0504
  20765891.305    -1673501.398 9  -1293706.75447  20765890.933    20765897.9154
  20734196.353    -1555807.436 9  -1207176.50447  20734195.655    20734203.1514
  20994081.993                                    20994084.408    20994088.8354
  21146003.557    -1227201.114 9   -961715.81247  21146003.147    21146011.3594
  21769754.045    -1086630.22946                  21769754.702    21769762.1284
  20714309.492    -1568081.710 9  -1213188.60447  20714308.842    20714316.4774
 01  4 25 22 41  0.0000000  0  8 22 21 18 17 15 06 26 23
  23592399.749    -1392395.119 7  -1083600.88645  23592398.492    23592412.8674
  23556120.313    -1845011.934 8  -1425945.04845  23556120.037    23556136.5344
  20758189.592    -1713973.925 9  -1325243.70947  20758189.245    20758196.2334
  20731833.077    -1568226.037 9  -1216853.32347  20731832.451    20731839.9734
  20986917.121                                    20986919.578    20986997.7714
  21158837.266    -1159759.104 9   -909163.66447  21158836.972    21158845.2224
  21774438.201    -1386227.58218  -1067450.07546  21774438.500    21774446.0344
  20711662.062    -1581993.481 9  -1224028.90148  20711661.515    20711669.1804
 01  4 25 22 41 30.0000000  0  8 22 21 18 17 15 06 26 23
  23596744.657    -1369561.663 7  -1065808.70445  23596743.694    23596758.0224
  23541716.521    -1920703.800 8  -1484925.30045  23541716.230    23541732.6514
  20750569.617    -1754017.036 9  -1356446.05547  20750569.280    20750576.2624
  20729505.660    -1580456.506 9  -1226383.54647  20729505.082    20729512.6214
  20979787.136                                    20979789.614    20979771.5714
  21171754.445    -1091878.974 9   -856270.12047  21171754.189    21171762.4324
  21779242.074    -1360983.147 8  -1047779.07146  21779242.244    21779249.8854
  20709091.339    -1595502.546 9  -1234555.39948  20709090.825    20709098.4814
 01  4 25 22 42  0.0000000  0  8 22 21 18 17 15 06 26 23
  23601177.758    -1346265.899 7  -1047656.27945  23601176.895    23601191.1594
  23527355.140    -1996172.688 8  -1543731.80645  23527354.831    23527371.2104
  20743030.964    -1793632.903 9  -1387315.49147  20743030.619    20743037.5904
  20727213.760    -1592500.413 9  -1235768.40147  20727213.229    20727220.7654
  20972691.702    -1053696.91957                  20972691.098    20972698.8934
  21184754.314    -1023564.480 9   -803038.12247  21184754.080    21184762.3314
  21784165.257    -1335111.812 8  -1027619.58646  21784165.416    21784173.0514
  20706596.648    -1608612.147 9  -1244770.63348  20706596.142    20706603.7914
 01  4 25 22 42 30.0000000  0  8 22 21 18 17 15 06 26 23
  23605698.470    -1322509.513 8  -1029144.91745  23605697.635    23605711.9144
  23513036.368    -2071417.864 8  -1602363.98945  23513035.945    23513052.1954
  20735573.622    -1832821.372 9  -1417851.88147  20735573.261    20735580.2324
  20724957.467    -1604357.222 9  -1245007.45447  20724956.941    20724964.4864
  20965630.892    -1811195.10219  -1082609.64447  20965630.126    20965638.1594
  21197836.560     -954816.810 9   -749468.57147  21197836.353    21197844.6594
  21789207.566    -1308614.195 8  -1006972.07546  21789207.716    21789215.3754
  20704177.862    -1621322.810 9  -1254674.99948  20704177.356    20704185.0274
 01  4 25 22 43  0.0000000  0  8 22 21 18 17 15 06 26 23
  23610306.832    -1298292.968 8  -1010275.01045  23610305.985    23610320.3424
  23498760.294    -2146438.227 8  -1660821.00445  23498759.878    23498775.9704
  20728197.808    -1871581.475 9  -1448054.49247  20728197.448    20728204.4084
  20722737.051    -1616025.500 9  -1254099.61047  20722736.548    20722744.0774
  20958604.923    -1848116.735 9  -1111379.71047  20958604.210    20958612.1634
  21211001.132     -885636.514 9   -695561.92147  21211000.959    21211009.3004
  21794369.138    -1281490.177 8   -985836.47746  21794369.262    21794376.9134
  20701835.020    -1633634.505 9  -1264268.48848  20701834.508    20701842.1844
 01  4 25 22 43 30.0000000  0  8 22 21 18 17 15 06 26 23
  23615002.310    -1273618.296 8   -991048.11145  23615001.435    23615015.7804
  23484527.113    -2221233.163 8  -1719102.38045  23484526.700    23484542.6434
  20720903.326    -1909913.934 9  -1477923.86647  20720902.967    20720909.9164
  20720552.531    -1627505.299 9  -1263044.89047  20720552.030    20720559.5464
  20951613.801    -1884855.178 9  -1140007.02847  20951613.110    20951621.0444
  21224247.687     -816025.586 9   -641319.71147  21224247.529    21224255.8924
  21799649.612    -1253741.179 8   -964213.87346  21799649.737    21799657.3674
  20699567.810    -1645548.725 9  -1273552.25548  20699567.308    20699574.9614
 01  4 25 22 44  0.0000000  0  8 22 21 18 17 15 06 26 23
  23619785.030    -1248485.664 8   -971464.36745  23619784.153    23619798.5374
  23470337.110    -2295800.908 8  -1777206.72145  23470336.694    23470352.5084
  20713690.607    -1947817.052 9  -1507458.69247  20713690.251    20713697.1694
  20718404.288    -1638794.501 9  -1271841.66047  20718403.778    20718411.2694
  20944658.006    -1921408.228 9  -1168489.88347  20944657.315    20944665.2404
  21237576.282     -745983.782 9   -586741.76047  21237576.122    21237584.5044
  21805049.193    -1225366.384 8   -942103.64046  21805049.309    21805056.9314
  20697376.396    -1657064.685 9  -1282525.69448  20697375.885    20697383.5134
 01  4 25 22 44 30.0000000  0  8 22 21 18 17 15 06 26 23
  23624653.829    -1222900.367 7   -951527.89445  23624652.933    23624667.3964
  23456189.912    -2370143.774 8  -1835135.84746  23456189.508    23456205.1944
  20706559.003    -1985293.829 9  -1536661.30247  20706558.618    20706565.5114
  20716291.883    -1649895.467 9  -1280491.74947  20716291.360    20716298.8484
  20937737.004    -1957778.263 9  -1196830.13647  20937736.317    20937744.2724
  21250985.974     -675515.568 8   -531831.53947  21250985.819    21250994.2324
  21810567.072    -1196369.594 8   -919508.73946  21810567.219    21810574.8424
  20695259.999    -1668186.452 9  -1291191.96648  20695259.510    20695267.0914
 01  4 25 22 45  0.0000000  0  8 22 21 18 17 15 06 26 23
  23629608.757    -1196862.732 8   -931238.95845  23629607.873    23629622.3954
  23442085.878    -2444259.604 8  -1892888.07346  23442085.423    23442101.0374
  20699508.736    -2022343.028 9  -1565530.73947  20699508.349    20699515.2114
  20714215.586    -1660806.342 9  -1288993.71747  20714215.087    20714222.5614
  20930851.184    -1993963.317 9  -1225026.24447  20930850.514    20930858.4554
  21264476.791     -604621.114 8   -476589.18647  21264476.639    21264485.0774
  21816203.435    -1166750.366 8   -896428.81646  21816203.557    21816211.1554
  20693218.666    -1678913.569 9  -1299550.71948  20693218.173    20693225.7584
 01  4 25 22 45 30.0000000  0  8 22 21 18 17 15 06 26 23
  23634649.636    -1170373.495 8   -910598.13245  23634648.763    23634663.2254
  23428025.119    -2518147.857 8  -1950462.96246  23428024.686    23428040.2554
  20692539.976    -2058964.022 9  -1594066.51347  20692539.583    20692546.4334
  20712175.730    -1671525.831 9  -1297346.54947  20712175.210    20712182.7094
  20924000.720    -2029962.738 9  -1253077.70147  20924000.046    20924007.9794
  21278048.547     -533301.336 8   -421015.40747  21278048.393    21278056.8684
  21821958.196    -1136509.069 8   -872864.16246  21821958.322    21821965.8824
  20691252.408    -1689246.242 9  -1307602.11348  20691251.924    20691259.4804
 01  4 25 22 46  0.0000000  0  8 22 21 18 17 15 06 26 23
  23639775.844    -1143435.244 8   -889607.42545  23639774.974    23639789.5404
  23414007.639    -2591808.887 8  -2007860.81346  23414007.161    23414022.6664
  20685652.435    -2095157.994 9  -1622269.53647  20685652.041    20685658.9024
  20710172.177    -1682054.547 9  -1305550.72247  20710171.676    20710179.1704
  20917185.501    -2065776.947 9  -1280984.84047  20917184.854    20917192.7364
  21291700.751     -461558.688 9   -365112.12347  21291700.622    21291709.1344
  21827830.996    -1105647.594 8   -848816.25546  21827831.097    21827838.6114
  20689360.825    -1699186.499 9  -1315347.72748  20689360.344    20689367.8914
 01  4 25 22 46 30.0000000  0  9 22 21 18 17 15 06 26 23 03
  23644987.136    -1116050.414 8   -868268.73645  23644986.297    23645000.9244
  23400033.530    -2665241.837 8  -2065080.93546  23400033.045    23400048.4484
  20678846.099    -2130925.394 9  -1650140.17447  20678845.703    20678852.5604
  20708205.025    -1692392.015 9  -1313605.88347  20708204.518    20708212.0084
  20910405.572    -2101405.647 9  -1308747.43647  20910404.928    20910412.7964
  21305433.131     -389394.956 8   -308880.72947  21305432.985    21305441.4764
  21833821.520    -1074167.153 8   -824286.03946  21833821.620    21833829.1844
  20687543.688    -1708735.535 9  -1322788.50548  20687543.202    20687550.7344
  24631853.799    -1966957.846 7  -1512724.34945  24631853.303    24631866.9294
 01  4 25 22 47  0.0000000  0  9 22 21 18 17 15 06 26 23 03
  23650283.064    -1088220.413 7   -846583.15345  23650282.260    23650296.9104
  23386103.027    -2738445.723 8  -2122122.56546  23386102.599    23386117.8944
  20672121.081    -2166265.370 9  -1677677.75347  20672120.689    20672127.5544
  20706274.515    -1702536.908 9  -1321510.97447  20706274.015    20706281.5184
  20903661.225    -2136847.367 9  -1336364.32347  20903660.587    20903668.4644
  21319245.480     -316810.926 9   -252321.81947  21319245.363    21319253.8314
  21839929.775    -1042067.963 8   -799273.67446  21839929.902    21839937.4594
  20685800.995    -1717893.407 9  -1329924.46848  20685800.508    20685808.0524
  24612475.107    -2068793.366 7  -1592076.48945  24612474.648    24612488.0644
 01  4 25 22 47 30.0000000  0  9 22 21 18 17 15 06 26 23 03
  23655663.459    -1059946.911 7   -824551.98845  23655662.636    23655677.4134
  23372216.197    -2811420.388 8  -2178985.58946  23372215.783    23372230.9674
  20665477.335    -2201178.289 9  -1704882.56947  20665476.958    20665483.8144
  20704380.692    -1712488.906 9  -1329265.76947  20704380.196    20704387.7244
  20896952.556    -2172101.590 9  -1363835.11947  20896951.921    20896959.7954
  21333137.512     -243808.283 9   -195436.72547  21333137.396    21333145.8424
  21846155.590    -1009351.308 8   -773780.18446  21846155.721    21846163.2854
  20684132.477    -1726661.396 9  -1336756.63948  20684131.993    20684139.5274
  24593119.261    -2170508.445 7  -1671334.76845  24593119.048    24593132.1474
 01  4 25 22 48  0.0000000  0  9 22 21 18 17 15 06 26 23 03
  23661127.772    -1031231.884 7   -802176.77945  23661126.982    23661141.8854
  23358373.020    -2884165.417 8  -2235669.67146  23358372.586    23358387.6944
  20658914.721    -2235664.697 9  -1731755.02547  20658914.361    20658921.2044
  20702523.646    -1722247.814 9  -1336870.09347  20702523.161    20702530.6474
  20890279.505    -2207168.451 9  -1391159.91347  20890278.891    20890286.7754
  21347108.878     -170388.815 9   -138226.82647  21347108.764    21347117.1834
  21852498.619     -976018.499 8   -747806.55746  21852498.710    21852506.3524
  20682537.877    -1735040.967 9  -1343286.13348  20682537.417    20682544.9524
  24573786.711    -2272101.228 7  -1750497.76745  24573786.501    24573799.6294
 01  4 25 22 48 30.0000000  0  9 22 21 18 17 15 06 26 23 03
  23666675.997    -1002076.372 8   -779458.34145  23666675.262    23666690.1844
  23344573.800    -2956679.682 8  -2292173.94246  23344573.319    23344588.3314
  20652433.451    -2269723.911 9  -1758294.61247  20652433.098    20652439.9134
  20700703.634    -1731812.118 9  -1344322.78647  20700703.161    20700710.6054
  20883642.427    -2242046.536 9  -1418337.61047  20883641.835    20883649.6784
  21361159.448      -96553.399 9    -80692.80947  21361159.337    21361167.7054
  21858958.826     -942069.881 8   -721353.08946  21858958.948    21858966.6054
  20681017.213    -1743032.225 9  -1349513.05648  20681016.760    20681024.2634
  24554478.019    -2373568.395 7  -1829562.89745  24554477.869    24554490.9724
 01  4 25 22 49  0.0000000  0  9 22 21 18 17 15 06 26 23 03
  23672307.470     -972483.291 8   -756398.95145  23672306.772    23672321.6894
  23330818.400    -3028963.336 8  -2348498.52746  23330817.951    23330832.9404
  20646033.366    -2303356.601 9  -1784501.84047  20646032.999    20646039.8014
  20698920.634    -1741181.805 9  -1351623.83047  20698920.186    20698927.6004
  20877041.276    -2276735.862 9  -1445368.22247  20877040.666    20877048.5004
  21375288.732      -22304.110 9    -22836.30447  21375288.606    21375296.9444
  21865535.953     -907507.024 8   -694420.99446  21865536.054    21865543.6934
  20679570.140    -1750636.621 9  -1355438.52448  20679569.672    20679577.1454
  24535193.694    -2474907.991 7  -1908528.64445  24535193.688    24535206.5824
 01  4 25 22 49 30.0000000  0  9 22 21 18 17 15 06 26 23 03
  23678022.138     -942453.128 8   -732998.97345  23678021.496    23678036.3274
  23317107.169    -3101014.632 8  -2404642.05246  23317106.773    23317121.6794
  20639714.576    -2336561.762 9  -1810375.93447  20639714.233    20639720.9904
  20697175.109    -1750354.844 9  -1358771.64647  20697174.634    20697182.0384
  20870476.485    -2311234.201 9  -1472250.01547  20870475.860    20870483.6764
  21389496.691       52358.897 8     35342.58047  21389496.570    21389504.9604
  21872229.989     -872329.579 8   -667009.99846  21872230.080    21872237.7114
  20678196.784    -1757853.715 9  -1361062.20048  20678196.313    20678203.7714
  24515934.361    -2576116.399 7  -1987392.17145  24515934.312    24515947.1954
 01  4 25 22 50  0.0000000  0  9 22 21 18 17 15 06 26 23 03
  23683819.406     -911989.370 8   -709261.13745  23683818.743    23683833.5404
  23303440.034    -3172834.699 8  -2460605.39646  23303439.605    23303454.4564
  20633476.852    -2369341.139 9  -1835918.24647  20633476.491    20633483.2024
  20695466.716    -1759332.516 9  -1365767.22547  20695466.247    20695473.6374
  20863947.727    -2345542.995 9  -1498984.11047  20863947.110    20863954.8994
  21403782.675      127431.991 8     93841.01247  21403782.540    21403790.9714
  21879040.343     -836540.831 8   -639122.66046  21879040.446    21879048.1274
  20676896.565    -1764686.498 9  -1366386.41048  20676896.073    20676903.5344
  24496700.049    -2677192.945 7  -2066152.93145  24496700.007    24496712.7704
 01  4 25 22 50 30.0000000  0  9 22 21 18 17 15 06 26 23 03
  23689698.979     -881092.860 8   -685186.09145  23689698.303    23689713.1744
  23289817.149    -3244422.074 8  -2516387.42246  23289816.796    23289831.4724
  20627320.274    -2401694.104 9  -1861128.28647  20627319.904    20627326.5804
  20693795.798    -1768113.454 9  -1372609.49847  20693795.324    20693802.6894
  20857455.310    -2379660.790 9  -1525569.36947  20857454.675    20857462.4704
  21418146.588      202914.495 8    152658.46047  21418146.456    21418154.9454
  21885967.005     -800140.997 8   -610759.15346  21885967.110    21885974.7954
  20675669.387    -1771135.103 9  -1371411.26148  20675668.912    20675676.3524
  24477491.452    -2778134.504 7  -2144808.51045  24477491.385    24477504.1644
 01  4 25 22 51  0.0000000  0  9 22 21 18 17 15 06 26 23 03
  23695660.250     -849766.606 7   -660776.16745  23695659.576    23695674.5534
  23276238.473    -3315777.432 8  -2571988.66046  23276238.056    23276252.6694
  20621244.594    -2433621.795 9  -1886006.94447  20621244.220    20621250.8804
  20692162.284    -1776697.664 9  -1379298.48147  20692161.804    20692169.1714
  20850999.258    -2413587.610 9  -1552005.81547  20850998.624    20851006.3884
  21432587.919      278803.814 8    211792.91647  21432587.778    21432596.3294
  21893009.647     -763132.066 8   -581921.01946  21893009.745    21893017.4134
  20674515.010    -1777201.427 9  -1376138.22848  20674514.522    20674521.9544
  24458308.812    -2878939.533 7  -2223357.69145  24458308.676    24458321.5944
 01  4 25 22 51 30.0000000  0  9 22 21 18 17 15 06 26 23 03
  23701702.863     -818012.869 7   -636033.15745  23701702.183    23701717.2024
  23262704.081    -3386899.893 8  -2627408.42246  23262703.686    23262718.1604
  20615249.844    -2465124.303 9  -1910554.28947  20615249.480    20615256.1274
  20690566.301    -1785084.509 9  -1385833.67547  20690565.819    20690573.2034
  20844579.693    -2447322.740 9  -1578292.89147  20844579.038    20844586.7814
  21447106.335      355098.403 8    271243.16447  21447106.207    21447114.8114
  21900167.962     -725515.070 8   -552609.08146  21900168.059    21900175.6894
  20673433.182    -1782886.226 9  -1380567.90348  20673432.710    20673440.1584
  24439152.602    -2979605.600 7  -2301798.57545  24439152.517    24439165.2184
 01  4 25 22 52  0.0000000  0  9 22 21 18 17 15 06 26 23 03
  23707826.701     -785832.497 7   -610957.69645  23707825.944    23707841.2014
  23249214.221    -3457788.292 8  -2682645.80346  23249213.785    23249228.2184
  20609336.081    -2496200.975 9  -1934769.81947  20609335.714    20609342.3664
  20689008.191    -1793272.380 9  -1392213.82347  20689007.718    20689015.0994
  20838196.793    -2480864.935 9  -1604429.63347  20838196.147    20838203.8764
  21461701.802      431797.748 8    331008.80147  21461701.673    21461710.3314
  21907441.799     -687290.556 8   -522823.74546  21907441.933    21907449.5924
  20672423.888    -1788189.927 9  -1384700.62148  20672423.429    20672430.8654
  24420023.419    -3080129.294 7  -2380128.50845  24420023.340    24420035.9194
 01  4 25 22 52 30.0000000  0  9 22 21 18 17 15 06 26 23 03
  23714031.516     -753226.823 8   -585550.81345  23714030.728    23714045.9904
  23235769.121    -3528441.542 8  -2737699.94746  23235768.693    23235783.0344
  20603503.371    -2526851.728 9  -1958653.46747  20603503.022    20603509.6504
  20687488.131    -1801260.272 9  -1398438.14947  20687487.660    20687495.0864
  20831850.789    -2514213.346 9  -1630415.37347  20831850.140    20831857.8874
  21476374.030      508900.459 8    391088.74647  21476373.916    21476382.6004
  21914831.176     -648459.378 8   -492565.68546  21914831.288    21914838.9734
  20671486.979    -1793113.256 9  -1388536.94848  20671486.528    20671493.9534
  24400921.898    -3180507.723 7  -2458345.25445  24400921.863    24400934.5934
 01  4 25 22 53  0.0000000  0  9 22 21 18 17 15 06 26 23 03
  23720316.397     -720200.223 8   -559815.94445  23720315.617    23720330.9614
  23222368.314    -3598862.030 8  -2792572.72346  23222367.870    23222382.1004
  20597751.239    -2557079.222 9  -1982207.29047  20597750.894    20597757.5054
  20686005.806    -1809050.037 9  -1404508.07947  20686005.337    20686012.7704
  20825541.243    -2547369.907 9  -1656251.61047  20825540.608    20825548.3534
  21491122.237      586402.443 8    451479.82047  21491122.116    21491130.8304
  21922335.275     -609025.240 8   -461837.78446  21922335.383    21922343.0314
  20670621.775    -1797659.799 9  -1392079.66748  20670621.317    20670628.7524
  24381848.099    -3280740.937 7  -2536448.88845  24381847.918    24381860.5454
 01  4 25 22 53 30.0000000  0  9 22 21 18 17 15 06 26 23 03
  23726681.158     -686754.105 7   -533754.17945  23726680.331    23726695.6174
  23209012.159    -3669047.933 8  -2847262.70346  23209011.706    23209025.8484
  20592079.803    -2586882.780 9  -2005430.78247  20592079.440    20592086.0294
  20684561.450    -1816639.952 9  -1410422.28947  20684560.996    20684568.4224
  20819268.682    -2580332.411 9  -1681936.64047  20819268.051    20819275.8124
  21505946.339      664303.062 8    512181.51547  21505946.203    21505954.9164
  21929954.119     -568988.414 8   -430640.25446  21929954.189    21929961.7784
  20669828.302    -1801829.440 9  -1395328.70348  20669827.846    20669835.2834
  24362802.619    -3380825.734 7  -2614436.86245  24362802.533    24362814.9804
 01  4 25 22 54  0.0000000  0  9 22 21 18 17 15 06 26 23 03
  23733125.380     -652890.012 7   -507366.73145  23733124.530    23733139.9124
  23195700.710    -3738998.558 8  -2901769.34946  23195700.271    23195714.3504
  20586489.130    -2616261.910 9  -2028323.55547  20586488.770    20586495.3354
  20683155.434    -1824028.701 9  -1416179.74647  20683154.950    20683162.3934
  20813033.187    -2613099.976 9  -1707469.76947  20813032.557    20813040.2984
  21520846.056      742601.077 8    573192.86447  21520845.928    21520854.6414
  21937687.406     -528349.601 8   -398973.65646  21937687.525    21937695.0554
  20669106.475    -1805622.673 9  -1398284.43848  20669106.036    20669113.4374
  24343785.791    -3480759.008 7  -2692306.78445  24343785.748    24343798.1554
 01  4 25 22 54 30.0000000  0  9 22 21 18 17 15 06 26 23 03
  23739648.976     -618609.156 8   -480654.53545  23739648.093    23739663.4694
  23182434.295    -3808712.924 8  -2956091.89146  23182433.876    23182447.8624
  20580979.224    -2645216.444 9  -2050885.46847  20580978.865    20580985.4264
  20681787.893    -1831215.106 9  -1421779.53347  20681787.436    20681794.8754
  20806835.039    -2645671.347 9  -1732850.02247  20806834.408    20806842.1734
  21535821.093      821295.235 8    634512.90247  21535820.981    21535829.7194
  21945535.076     -487109.759 8   -366838.71446  21945535.182    21945542.7344
  20668456.176    -1809040.012 9  -1400947.26548  20668455.726    20668463.1224
  24324798.396    -3580537.841 7  -2770056.34545  24324798.313    24324810.7734
 01  4 25 22 55  0.0000000  0  9 22 21 18 17 15 06 26 23 03
  23746251.365     -583914.255 7   -453619.69445  23746250.463    23746265.7264
  23169212.657    -3878191.712 8  -3010230.86246  23169212.238    23169226.1774
  20575549.839    -2673747.747 9  -2073117.59747  20575549.484    20575556.0524
  20680458.891    -1838199.306 9  -1427221.75847  20680458.417    20680465.8774
  20800674.185    -2678046.752 9  -1758077.57347  20800673.563    20800681.3084
  21550871.083      900383.048 8    696139.67547  21550870.972    21550879.7584
  21953496.758     -445271.046 8   -334237.12346  21953496.880    21953504.3784
  20667876.987    -1812083.542 9  -1403318.81548  20667876.537    20667883.9374
  24305840.687    -3680160.391 7  -2847684.10245  24305840.617    24305852.9904
 01  4 25 22 55 30.0000000  0  9 22 21 18 17 15 06 26 23 03
  23752932.103     -548807.088 8   -426263.62945  23752931.277    23752946.5414
  23156036.044    -3947433.812 8  -3064185.41746  23156035.621    23156049.5474
  20570201.010    -2701855.696 9  -2095019.84147  20570200.676    20570207.2334
  20679168.511    -1844980.380 9  -1432505.70247  20679168.030    20679175.4564
  20794550.816    -2710225.100 9  -1783151.57547  20794550.203    20794557.9524
  21565995.699      979863.137 8    758072.11547  21565995.592    21566004.4004
  21961572.106     -402834.666 8   -301169.81846  21961572.240    21961579.7654
  20667368.825    -1814753.843 9  -1405399.54148  20667368.389    20667375.7664
  24286913.083    -3779623.987 7  -2925187.99045  24286913.061    24286925.5294
 01  4 25 22 56  0.0000000  0  9 22 21 18 17 15 06 26 23 03
  23759690.806     -513290.416 8   -398588.45545  23759689.999    23759705.2824
  23142904.570    -4016439.141 8  -3117955.46246  23142904.102    23142917.9494
  20564932.692    -2729540.837 9  -2116592.62147  20564932.334    20564938.8724
  20677916.871    -1851557.850 9  -1437630.98947  20677916.386    20677923.7964
  20788465.039    -2742206.030 9  -1808071.74547  20788464.426    20788472.1554
  21581194.617     1059733.571 8    820308.72647  21581194.510    21581203.3444
  21969760.882     -359802.197 8   -267638.02346  21969761.051    21969768.5964
  20666931.404    -1817052.492 9  -1407190.66448  20666930.951    20666938.3244
  24268016.188    -3878926.523 7  -3002566.36545  24268016.262    24268028.6654
 01  4 25 22 56 30.0000000  0  9 22 21 18 17 15 06 26 23 03
  23766526.952     -477366.634 8   -370596.06345  23766526.216    23766541.4324
  23129818.165    -4085207.499 8  -3171540.86246  23129817.690    23129831.4594
  20559744.727    -2756803.729 9  -2137836.37947  20559744.355    20559750.8854
  20676704.101    -1857931.018 9  -1442597.08147  20676703.626    20676711.0344
  20782416.937    -2773989.059 9  -1832837.70847  20782416.333    20782424.0494
  21596467.431     1139992.285 8    882847.89247  21596467.307    21596476.1324
  21978062.787     -316175.341 8   -233643.08146  21978062.983    21978070.5484
  20666564.436    -1818980.814 9  -1408693.22448  20666563.976    20666571.3364
  24249150.453    -3978065.870 7  -3079817.60345  24249150.443    24249162.8864
 01  4 25 22 57  0.0000000  0  9 22 21 18 17 15 06 26 23 03
  23773440.336     -441037.335 7   -342287.66645  23773439.660    23773454.7974
  23116776.903    -4153738.561 8  -3224941.35746  23116776.439    23116790.1124
  20554637.052    -2783644.638 9  -2158751.32147  20554636.691    20554643.2174
  20675530.279    -1864099.518 9  -1447403.69247  20675529.789    20675537.2124
  20776406.590    -2805573.499 9  -1857448.93547  20776405.983    20776413.7044
  21611813.793     1220637.517 8    945688.23547  21611813.663    21611822.4934
  21986477.523     -271955.646 8   -199186.17446  21986477.718    21986485.2684
  20666267.750    -1820539.916 9  -1409908.08448  20666267.291    20666274.6504
  24230316.329    -4077039.240 7  -3156939.51245  24230316.192    24230328.7314
 01  4 25 22 57 30.0000000  0  9 22 21 18 17 15 06 26 23 03
  23780430.584     -404303.609 7   -313664.12445  23780429.950    23780445.0814
  23103780.963    -4222031.406 8  -3278156.23246  23103780.516    23103794.0694
  20549609.730    -2810063.013 9  -2179337.01447  20549609.372    20549615.9154
  20674395.754    -1870061.485 9  -1452049.36747  20674395.274    20674402.6984
  20770434.355    -2836957.840 9  -1881904.23347  20770433.748    20770441.4554
  21627233.530     1301668.281 8   1008828.99347  21627233.418    21627242.2544
  21995005.015     -227143.590 8   -164267.69746  21995005.185    21995012.7614
  20666041.282    -1821730.011 9  -1410835.40348  20666040.818    20666048.1644
  24211514.589    -4175843.292 8  -3233929.51345  24211514.358    24211526.7564
 01  4 25 22 58  0.0000000  0  9 22 21 18 17 15 06 26 23 03
  23787497.132     -367169.571 7   -284728.68045  23787496.399    23787511.6194
  23090830.095    -4290087.194 8  -3331186.38546  23090829.682    23090843.1584
  20544662.423    -2836061.025 9  -2199595.15547  20544662.076    20544668.6114
  20673300.304    -1875817.975 9  -1456534.93047  20673299.842    20673307.2764
  20764499.976    -2868142.984 9  -1906204.31347  20764499.376    20764507.0844
  21642725.993     1383081.228 8   1072267.55947  21642725.913    21642734.7424
  22003644.558     -181742.466 8   -128890.20546  22003644.714    22003652.3454
  20665884.495    -1822553.944 9  -1411477.40448  20665884.056    20665891.3654
  24192745.023    -4274477.397 7  -3310787.08445  24192744.812    24192757.1464
 01  4 25 22 58 30.0000000  0  9 22 21 18 17 15 06 26 23 03
  23794639.532     -329636.665 7   -255482.41945  23794638.824    23794653.9644
  23077924.690    -4357904.474 8  -3384030.70246  23077924.246    23077937.6044
  20539795.293    -2861637.732 9  -2219525.00847  20539794.956    20539801.4934
  20672244.349    -1881367.019 9  -1460858.84447  20672243.903    20672251.3274
  20758603.825    -2899127.343 9  -1930347.94747  20758603.238    20758610.9604
  21658291.056     1464875.853 8   1136003.53247  21658290.957    21658299.8524
  22012396.085     -135752.778 8    -93054.09046  22012396.275    22012403.9054
  20665797.336    -1823011.745 9  -1411834.10848  20665796.897    20665804.2254
  24174008.494    -4372937.896 7  -3387509.34345  24174008.233    24174020.5644
 01  4 25 22 59  0.0000000  0  9 22 21 18 17 15 06 26 23 03
  23801857.385     -291707.296 7   -225927.21545  23801856.608    23801871.9154
  23065064.589    -4425483.291 8  -3436689.19746  23065064.158    23065077.4454
  20535008.120    -2886794.425 9  -2239127.57847  20535007.790    20535014.3214
  20671227.891    -1886708.676 9  -1465021.15747  20671227.437    20671234.8594
  20752745.904    -2929910.848 9  -1954335.06447  20752745.303    20752753.0434
  21673928.255     1547049.507 8   1200034.85347  21673928.182    21673937.0964
  22021259.246      -89176.548 8    -56760.92946  22021259.439    22021267.0344
  20665779.549    -1823105.174 9  -1411906.88348  20665779.139    20665786.4584
  24155305.343    -4471222.652 7  -3464094.67145  24155305.131    24155317.4424
 01  4 25 22 59 30.0000000  0  9 22 21 18 17 15 06 26 23 03
  23809150.387     -253383.011 7   -196064.29845  23809149.638    23809164.8844
  23052250.013    -4492822.889 8  -3489161.30846  23052249.610    23052262.8244
  20530300.853    -2911531.184 9  -2258402.92847  20530300.519    20530307.0364
  20670251.093    -1891841.873 9  -1469021.03547  20670250.643    20670258.0654
  20746926.416    -2960492.369 9  -1978164.79647  20746925.822    20746933.5684
  21689637.257     1629600.565 8   1264360.24247  21689637.186    21689646.1284
  22030233.775      -42015.201 8    -20011.84046  22030233.966    22030241.5374
  20665830.964    -1822835.006 9  -1411696.33948  20665830.533    20665837.8674
  24136636.141    -4569329.305 7  -3540541.22145  24136635.925    24136648.1494
 01  4 25 23  0  0.0000000  0  9 22 21 18 17 15 06 26 23 03
  23816518.138     -214666.430 7   -165895.69245  23816517.288    23816532.5824
  23039480.900    -4559923.493 8  -3541447.18046  23039480.540    23039493.6934
  20525673.342    -2935848.641 9  -2277351.54847  20525673.012    20525679.5154
  20669314.051    -1896766.136 9  -1472858.10947  20669313.592    20669321.0314
  20741145.445    -2990871.604 9  -2001836.90347  20741144.854    20741152.5694
  21705417.718     1712526.879 8   1328978.05247  21705417.642    21705426.5904
  22039319.338        5729.466 8     17191.79746  22039319.546    22039326.9934
  20665951.216    -1822202.928 9  -1411203.78748  20665950.780    20665958.1234
  24118001.361    -4667255.463 7  -3616847.12945  24118001.195    24118013.2274
 01  4 25 23  0 30.0000000  0  9 22 21 18 17 15 06 26 23 03
  23823959.940     -175560.221 8   -135423.48345  23823959.126    23823974.4304
  23026757.491    -4626784.361 8  -3593546.26246  23026757.098    23026770.2024
  20521125.538    -2959747.339 9  -2295973.86347  20521125.221    20521131.7034
  20668416.921    -1901480.718 9  -1476531.79247  20668416.453    20668423.8894
  20735403.122    -3021047.675 9  -2025350.69447  20735402.500    20735410.2284
  21721269.261     1795826.565 8   1393886.78547  21721269.148    21721278.1344
  22048515.555       54055.639 8     54848.54346  22048515.780    22048523.1284
  20666140.164    -1821210.046 9  -1410430.09048  20666139.729    20666147.0604
  24099401.291    -4764998.703 7  -3693010.50145  24099401.112    24099413.1444
 01  4 25 23  1  0.0000000  0  9 22 21 18 17 15 06 26 23 03
  23831475.467     -136066.487 8   -104649.32445  23831474.703    23831489.9804
  23014079.679    -4693405.564 8  -3645458.59246  23014079.275    23014092.3094
  20516657.333    -2983227.680 9  -2314270.19147  20516657.004    20516663.4904
  20667559.842    -1905984.789 9  -1480041.44447  20667559.396    20667566.7644
  20729699.668    -3051019.472 9  -2048705.31647  20729699.058    20729706.7754
  21737191.478     1879498.104 8   1459085.28147  21737191.386    21737200.4114
  22057822.192      102961.863 8     92957.28546  22057822.397    22057829.7284
  20666397.590    -1819857.326 9  -1409376.00248  20666397.151    20666404.4444
  24080836.525    -4862556.360 8  -3769029.26445  24080836.344    24080848.2654
 01  4 25 23  1 30.0000000  0  9 22 21 18 17 15 06 26 23 03
  23839064.403      -96187.175 8    -73574.71645  23839063.670    23839078.9464
  23001447.480    -4759787.071 8  -3697184.16146  23001447.090    23001460.0244
  20512268.690    -3006290.130 9  -2332240.88947  20512268.362    20512274.8244
  20666742.924    -1910277.753 9  -1483386.60047  20666742.462    20666749.8244
  20724035.122    -3080786.635 9  -2071900.47947  20724034.510    20724042.2454
  21753184.048     1963539.445 8   1524571.93147  21753183.994    21753193.0724
  22067238.855      152446.258 8    131516.53246  22067239.028    22067246.2924
  20666723.209    -1818146.230 9  -1408042.66048  20666722.765    20666730.0674
  24062307.565    -4959925.906 8  -3844901.45945  24062307.381    24062319.2664
 01  4 25 23  2  0.0000000  0  9 22 21 18 17 15 06 26 23 03
  23846726.313      -55924.001 8    -42200.99045  23846725.645    23846741.0174
  22988861.046    -4825928.088 8  -3748722.34146  22988860.663    22988873.4734
  20507959.571    -3028934.634 9  -2349885.91847  20507959.235    20507965.6884
  20665966.360    -1914358.481 9  -1486566.38047  20665965.900    20665973.2844
  20718409.734    -3110348.089 9  -2094935.35647  20718409.124    20718416.9024
  21769246.674     2047948.832 8   1590345.35947  21769246.604    21769255.7594
  22076765.159      202507.515 8    170525.29646  22076765.313    22076772.6794
  20667116.837    -1816077.708 9  -1406430.80548  20667116.383    20667123.6904
  24043815.007    -5057104.582 7  -3920624.91945  24043814.834    24043826.5464
 01  4 25 23  2 30.0000000  0  9 22 21 18 17 15 06 26 23 03
  23854460.838      -15279.574 8    -10530.19545  23854460.100    23854475.6504
  22976320.414    -4891828.208 8  -3800072.79746  22976320.075    22976332.8284
  20503729.790    -3051162.084 9  -2367205.96547  20503729.454    20503735.9314
  20665230.353    -1918226.242 9  -1489580.20847  20665229.889    20665237.2654
  20712823.561    -3139703.476 9  -2117809.65247  20712822.951    20712830.7324
  21785378.994     2132724.293 8   1656404.04947  21785378.926    21785388.1224
  22086400.849      253143.663 8    209982.02846  22086401.013    22086408.4654
  20667578.181    -1813653.096 9  -1404541.47448  20667577.744    20667585.0604
  24025359.137    -5154090.162 7  -3996197.91045  24025358.930    24025370.6394
 01  4 25 23  3  0.0000000  0  9 22 21 18 17 15 06 26 23 03
  23862267.382       25743.071 8     21435.32045  23862266.567    23862282.2524
  22963825.565    -4957487.860 8  -3851235.89546  22963825.196    22963837.9504
  20499579.231    -3072973.347 9  -2384201.71347  20499578.897    20499585.3494
  20664534.913    -1921880.677 9  -1492427.80647  20664534.461    20664541.8374
  20707276.726    -3168852.328 9  -2140523.01347  20707276.111    20707283.8824
  21801580.548     2217863.594 8   1722746.24547  21801580.480    21801589.6934
  22096145.543      304352.693 8    249885.16646  22096145.707    22096153.2704
  20668107.023    -1810873.976 9  -1402375.90248  20668106.578    20668113.8934
  24006940.396    -5250880.498 7  -4071618.76945  24006940.222    24006951.8924
 01  4 25 23  3 30.0000000  0  9 22 21 18 17 15 06 26 23 03
  23870145.453       67141.956 8     53693.99545  23870144.732    23870160.3974
  22951376.559    -5022906.631 8  -3902211.29446  22951376.193    22951388.8864
  20495507.822    -3094368.625 9  -2400873.31647  20495507.486    20495513.9444
  20663880.283    -1925320.822 9  -1495108.43047  20663879.824    20663887.2064
  20701769.409    -3197793.504 9  -2163074.55347  20701768.794    20701776.5324
  21817851.002     2303364.996 8   1789370.60647  21817850.956    21817860.2214
  22105998.936      356133.003 8    290233.45646  22105999.115    22106006.7934
  20668703.110    -1807741.444 9  -1399934.94348  20668702.665    20668709.9564
  23988559.333    -5347472.803 7  -4146885.31745  23988559.166    23988570.8084
 01  4 25 23  4  0.0000000  0  9 22 21 18 17 15 06 26 23 03
  23878094.786      108914.995 8     86244.22945  23878094.059    23878109.6964
  22938973.481    -5088084.291 8  -3952998.82246  22938973.120    22938985.7114
  20491515.370    -3115348.888 9  -2417221.53047  20491515.029    20491521.4914
  20663266.452    -1928546.311 9  -1497621.78947  20663266.019    20663273.4044
  20696301.657    -3226526.659 9  -2185463.99347  20696301.039    20696308.7774
  21834189.927     2389226.037 8   1856275.20147  21834189.875    21834199.1614
  22115960.681      408482.301 8    331025.11746  22115960.849    22115968.5464
  20669366.154    -1804257.056 9  -1397219.81348  20669365.706    20669373.0024
  23970216.365    -5443864.879 7  -4221995.85145  23970216.275    23970227.8244
 01  4 25 23  4 30.0000000  0  9 22 21 18 17 15 06 26 23 03
  23886114.859      151059.793 8    119084.14245  23886114.137    23886129.8374
  22926616.341    -5153020.679 8  -4003598.34946  22926615.954    22926628.4894
  20487601.805    -3135914.615 9  -2433246.73447  20487601.479    20487607.9304
  20662693.675    -1931556.327 9  -1499967.25047  20662693.245    20662700.6164
  20690873.630    -3255051.021 9  -2207690.74647  20690873.047    20690880.7384
  21850596.970     2475445.087 8   1923458.75747  21850596.896    21850606.2374
  22126030.410      461399.023 8    372258.90646  22126030.578    22126038.2654
  20670095.960    -1800421.838 9  -1394231.31048  20670095.521    20670102.8054
  23951912.084    -5540053.921 7  -4296948.17845  23951911.977    23951923.5864
 01  4 25 23  5  0.0000000  0  9 22 21 18 17 15 06 26 23 03
  23894205.160      193573.749 7    152211.72345  23894204.386    23894220.1754
  22914305.107    -5217715.647 8  -4054009.75846  22914304.717    22914317.2124
  20483767.044    -3156066.271 9  -2448949.28047  20483766.714    20483773.1744
  20662162.051    -1934350.039 9  -1502144.16047  20662161.623    20662169.0044
  20685485.562    -3283365.666 9  -2229754.07547  20685484.947    20685492.6214
  21867071.798     2562020.218 8   1990919.79047  21867071.741    21867081.0584
  22136207.769      514881.155 8    413933.28546  22136207.932    22136215.6174
  20670892.281    -1796237.073 9  -1390970.42748  20670891.839    20670899.1424
  23933646.858    -5636037.599 7  -4371740.46845  23933646.721    23933658.3274
 01  4 25 23  5 30.0000000  0  9 22 21 18 17 15 06 26 23 03
  23902365.172      236454.533 8    185625.12245  23902364.417    23902380.3474
  22902039.958    -5282168.544 8  -4104232.55746  22902039.618    22902052.0224
  20480011.080    -3175804.051 9  -2464329.33247  20480010.744    20480017.1794
  20661671.792    -1936926.253 9  -1504151.59947  20661671.353    20661678.7374
  20680137.505    -3311469.786 9  -2251653.36547  20680136.909    20680144.5524
  21883614.020     2648949.582 8   2058656.83547  21883613.959    21883623.2914
  22146492.525      568927.338 8    456047.18746  22146492.652    22146500.2754
  20671754.947    -1791703.767 9  -1387437.96148  20671754.512    20671761.7894
  23915421.349    -5731813.020 7  -4446370.50345  23915421.119    23915432.7264
 01  4 25 23  6  0.0000000  0  9 22 21 18 17 15 06 26 23 03
  23910594.630      279699.854 8    219322.59045  23910593.920    23910609.8674
  22889820.727    -5346379.870 8  -4154267.10146  22889820.398    22889832.7744
  20476333.601    -3195129.135 9  -2479387.79747  20476333.249    20476339.6834
  20661222.943    -1939284.807 9  -1505989.42547  20661222.513    20661229.9124
  20674829.617    -3339363.021 9  -2273388.32547  20674829.004    20674836.6154
  21900223.150     2736230.674 8   2126667.96147  21900223.111    21900232.4434
  22156884.172      623535.108 8    498598.68046  22156884.288    22156891.8394
  20672683.591    -1786823.846 9  -1383635.39748  20672683.149    20672690.4324
  23897235.748    -5827378.129 7  -4520836.66645  23897235.488    23897246.9384
 01  4 25 23  6 30.0000000  0  9 22 21 18 17 15 06 26 23 03
  23918893.120      323307.623 8    253302.48145  23918892.395    23918908.3394
  22877647.668    -5410348.959 8  -4204112.90846  22877647.314    22877659.6594
  20472734.587    -3214041.956 9  -2494125.01847  20472734.241    20472740.6534
  20660815.717    -1941424.732 9  -1507656.89747  20660815.295    20660822.6924
  20669562.079    -3367044.180 9  -2294958.03547  20669561.460    20669569.0504
  21916898.878     2823861.637 8   2194951.71046  21916898.816    21916908.1804
  22167382.265      678702.682 8    541586.39146  22167382.390    22167389.9304
  20673678.000    -1781598.222 9  -1379563.45848  20673677.541    20673684.8234
  23879090.785    -5922730.075 7  -4595136.71945  23879090.620    23879101.8294
 01  4 25 23  7  0.0000000  0  9 22 21 18 17 15 06 26 23 03
  23927260.105      367275.360 8    287562.86545  23927259.343    23927275.3104
  22865520.739    -5474075.583 8  -4253769.77646  22865520.360    22865532.6564
  20469213.892    -3232543.175 9  -2508541.50947  20469213.568    20469219.9464
  20660450.274    -1943345.291 9  -1509153.43147  20660449.838    20660457.2514
  20664334.948    -3394512.711 9  -2316362.05847  20664334.319    20664341.9194
  21933640.826     2911840.547 8   2263506.58646  21933640.726    21933650.1304
  22177986.440      734428.042 8    585008.74046  22177986.619    22177994.1414
  20674737.876    -1776028.401 9  -1375223.31148  20674737.427    20674744.6844
  23860986.715    -6017866.751 7  -4669269.03945  23860986.473    23860997.7004
 01  4 25 23  7 30.0000000  0  9 22 21 18 17 15 06 26 23 03
  23935695.079      411600.569 8    322101.80045  23935694.274    23935710.3814
  22853439.976    -5537559.584 8  -4303237.59646  22853439.563    22853451.8124
  20465771.534    -3250632.931 9  -2522637.38348  20465771.192    20465777.5704
  20660126.782    -1945045.217 9  -1510478.04547  20660126.332    20660133.7474
  20659148.538    -3421767.508 9  -2337599.54447  20659147.910    20659155.5074
  21950448.654     3000165.891 8   2332331.41146  21950448.551    21950458.0014
  22188696.488      790709.578 8    628864.47446  22188696.655    22188704.2154
  20675863.132    -1770115.133 9  -1370615.54948  20675862.688    20675869.9264
  23842924.283    -6112784.973 7  -4743231.13745  23842924.057    23842935.1834
 01  4 25 23  8  0.0000000  0  9 22 21 18 17 15 06 26 23 03
  23944197.569      456280.644 8    356917.25745  23944196.727    23944212.9244
  22841405.357    -5600800.892 8  -4352516.31146  22841404.955    22841417.1344
  20462407.253    -3268312.229 9  -2536413.41048  20462406.910    20462413.2584
  20659845.332    -1946524.168 9  -1511630.46647  20659844.897    20659852.3244
  20654002.852    -3448808.191 9  -2358670.17547  20654002.232    20654009.8154
  21967321.870     3088835.106 8   2401424.19546  21967321.799    21967331.2694
  22199511.888      847545.121 8    673151.90746  22199512.028    22199519.6754
  20677053.412    -1763860.222 9  -1365741.56248  20677052.954    20677060.1784
  23824903.861    -6207482.367 7  -4817021.14145  23824903.573    23824914.7204
 01  4 25 23  8 30.0000000  0  9 22 21 18 17 15 06 26 23 03
  23952767.191      501313.426 8    392007.55345  23952766.275    23952782.5574
  22829416.935    -5663799.799 8  -4401606.13446  22829416.504    22829428.6334
  20459120.947    -3285581.995 9  -2549870.32648  20459120.596    20459126.9354
  20659606.082    -1947781.471 9  -1512610.17847  20659605.643    20659613.0724
  20648898.053    -3475633.922 9  -2379573.31947  20648897.446    20648905.0294
  21984260.234     3177845.976 8   2470783.18446  21984260.133    21984269.6004
  22210432.307      904932.348 8    717869.21346  22210432.458    22210440.1464
  20678308.423    -1757265.022 9  -1360602.42348  20678307.975    20678315.1714
  23806925.905    -6301956.553 7  -4890637.22745  23806925.559    23806936.7644
 01  4 25 23  9  0.0000000  0  9 22 21 18 17 15 06 26 23 03
  23961403.412      546696.309 8    427370.64245  23961402.536    23961418.7944
  22817474.598    -5726556.094 8  -4450506.92146  22817474.172    22817486.2494
  20455912.347    -3302443.082 9  -2563008.79248  20455912.007    20455918.3234
  20659409.138    -1948816.485 9  -1513416.67747  20659408.689    20659416.1324
  20643834.250    -3502244.296 9  -2400308.65347  20643833.651    20643841.2284
  22001263.168     3267196.362 8   2540406.74046  22001263.082    22001272.5394
  22221457.269      962868.980 8    763014.62546  22221457.445    22221465.1724
  20679627.848    -1750331.259 9  -1355199.46648  20679627.382    20679634.5894
  23788990.807    -6396205.521 7  -4964077.81145  23788990.435    23789001.6344
 01  4 25 23  9 30.0000000  0  9 22 21 18 17 15 06 26 23 03
  23970105.799      592426.958 8    463004.70945  23970104.941    23970121.3314
  22805578.685    -5789068.651 8  -4499217.77646  22805578.287    22805590.2584
  20452781.524    -3318895.600 9  -2575828.89048  20452781.184    20452787.4854
  20659254.750    -1949627.968 9  -1514048.99247  20659254.266    20659261.7314
  20638811.685    -3528638.061 9  -2420875.20347  20638811.088    20638818.6664
  22018330.406     3356884.698 8   2610293.62746  22018330.307    22018339.7844
  22232586.475     1021353.675 8    808587.10846  22232586.641    22232594.4554
  20681011.593    -1743059.545 9  -1349533.17248  20681011.134    20681018.3424
  23771099.133    -6490225.976 8  -5037340.34445  23771098.880    23771110.0274
 01  4 25 23 10  0.0000000  0  9 22 21 18 17 15 06 26 23 03
  23978873.772      638502.157 8    498907.25645  23978872.921    23978889.3424
  22793728.960    -5851338.405 8  -4547739.43146  22793728.591    22793740.4744
  20449728.197    -3334940.811 9  -2588331.61048  20449727.848    20449734.1304
  20659142.901    -1950215.719 9  -1514506.97547  20659142.433    20659149.8974
  20633830.429    -3554814.855 9  -2441272.67847  20633829.797    20633837.3804
  22035461.463     3446908.357 8   2680441.81946  22035461.357    22035470.8384
  22243819.581     1080383.782 8    854584.56946  22243819.724    22243827.4694
  20682459.290    -1735451.851 9  -1343605.07548  20682458.822    20682466.0494
  23753251.400    -6584016.166 8  -5110423.46245  23753251.147    23753262.2814
 01  4 25 23 10 30.0000000  0  9 22 21 18 17 15 06 26 23 03
  23987706.941      684919.906 7    535076.73545  23987706.086    23987722.5544
  22781925.533    -5913365.211 8  -4596071.78346  22781925.162    22781936.9774
  20446752.273    -3350579.218 9  -2600517.34447  20446751.928    20446758.1854
  20659073.850    -1950578.680 9  -1514789.79347  20659073.381    20659080.8544
  20628890.615    -3580773.671 9  -2461500.30347  20628889.987    20628897.5694
  22052655.890     3537265.202 8   2750849.62546  22052655.814    22052665.3004
  22255156.048     1139957.299 8    901005.48046  22255156.216    22255163.9364
  20683970.640    -1727509.500 9  -1337416.20448  20683970.165    20683977.3914
  23735448.018    -6677573.378 8  -5183325.03045  23735447.732    23735458.7914
 01  4 25 23 11  0.0000000  0  9 22 21 18 17 15 06 26 23 03
  23996604.886      731678.355 8    571511.67945  23996604.096    23996620.4754
  22770168.382    -5975148.487 8  -4644214.38646  22770168.031    22770179.7884
  20443853.656    -3365811.397 9  -2612386.53748  20443853.305    20443859.5504
  20659047.760    -1950715.948 9  -1514896.74847  20659047.279    20659054.7314
  20623992.483    -3606513.522 9  -2481557.30947  20623991.858    20623999.4124
  22069913.368     3627953.500 8   2821515.70646  22069913.297    22069922.8764
  22266595.542     1200072.228 8    947848.26646  22266595.737    22266603.4394
  20685545.511    -1719233.495 9  -1330967.34848  20685545.035    20685552.2694
  23717689.378    -6770894.913 8  -5256042.95045  23717689.126    23717700.1814
 01  4 25 23 11 30.0000000  0  9 22 21 18 17 15 06 26 23 03
  24005567.247      778774.773 7    608209.98545  24005566.462    24005582.9134
  22758457.553    -6036688.406 8  -4692167.35146  22758457.169    22758468.9264
  20441032.168    -3380638.221 9  -2623939.86248  20441031.818    20441038.0624
  20659064.774    -1950626.578 9  -1514827.09747  20659064.307    20659071.7254
  20619136.168    -3632033.766 9  -2501443.18147  20619135.530    20619143.0944
  22087233.504     3718970.900 8   2892438.22946  22087233.397    22087243.0564
  22278137.767     1260726.523 8    995111.35046  22278137.916    22278145.6214
  20687183.578    -1710625.285 9  -1324259.62448  20687183.111    20687190.3344
  23699976.131    -6863978.305 8  -5328575.31045  23699975.898    23699986.8224
 01  4 25 23 12  0.0000000  0  9 22 21 18 17 15 06 26 23 03
  24014593.230      826205.873 7    645169.06445  24014592.413    24014608.9194
  22746792.988    -6097985.297 8  -4739930.94646  22746792.593    22746804.3014
  20438287.620    -3395060.834 9  -2635178.22647  20438287.268    20438293.5154
  20659124.961    -1950310.376 9  -1514580.70247  20659124.476    20659131.8714
  20614321.680    -3657333.990 9  -2521157.62247  20614321.062    20614328.6074
  22104615.772     3810314.834 8   2963615.18646  22104615.673    22104625.3614
  22289782.012     1321917.557 8   1042792.64746  22289782.175    22289789.9184
  20688884.534    -1701686.666 9  -1317294.44848  20688884.074    20688891.2874
  23682308.639    -6956821.100 8  -5400920.18445  23682308.389    23682319.2954
 01  4 25 23 12 30.0000000  0  9 22 21 18 17 15 06 26 23 03
  24023682.528      873969.683 7    682387.41045  24023681.630    24023698.3624
  22735174.759    -6159038.676 8  -4787504.80046  22735174.347    22735186.0104
  20435620.029    -3409079.084 9  -2646101.49948  20435619.665    20435625.8964
  20659228.573    -1949765.850 9  -1514156.38647  20659228.094    20659235.4784
  20609549.344    -3682412.636 9  -2540699.39747  20609548.726    20609556.2614
  22122059.931     3901983.947 8   3035045.53346  22122059.846    22122069.5504
  22301528.127     1383643.850 8   1090891.04646  22301528.283    22301536.0554
  20690648.176    -1692418.410 9  -1310072.40348  20690647.733    20690654.9324
  23664687.508    -7049420.462 8  -5473075.37445  23664687.168    23664698.0734
 01  4 25 23 13  0.0000000  0  9 22 21 18 17 15 06 26 23 03
  24032834.529      922063.390 7    719862.82645  24032833.665    24032850.5114
  22723602.835    -6219848.788 8  -4834889.08646  22723602.408    22723613.9944
  20433029.051    -3422694.615 9  -2656710.96948  20433028.699    20433034.9124
  20659375.680    -1948992.847 9  -1513554.04347  20659375.212    20659382.5784
  20604819.231    -3707269.529 9  -2560068.38147  20604818.611    20604826.1304
  22139565.436     3993975.394 8   3106727.04546  22139565.327    22139575.0684
  22313375.594     1445902.596 8   1139404.33546  22313375.732    22313383.4834
  20692474.224    -1682822.485 9  -1302595.04048  20692473.769    20692480.9564
  23647113.046    -7141774.463 8  -5545039.36945  23647112.665    23647123.6164
 01  4 25 23 13 30.0000000  0  9 22 21 18 17 15 06 26 23 03
  24042048.762      970483.963 7    757592.95145  24042047.956    24042064.6254
  22712077.085    -6280416.242 8  -4882084.29346  22712076.627    22712088.1424
  20430514.445    -3435908.857 9  -2667007.74248  20430514.089    20430520.2974
  20659566.258    -1947991.293 9  -1512773.59847  20659565.800    20659573.1454
  20600131.307    -3731904.780 9  -2579264.65247  20600130.696    20600138.1994
  22157131.731     4086286.214 8   3178657.42246  22157131.617    22157141.3454
  22325323.782     1508690.653 8   1188330.08146  22325323.960    22325331.6404
  20694362.216    -1672901.123 9  -1294864.08248  20694361.761    20694368.9414
  23629585.617    -7233881.238 8  -5616810.73045  23629585.229    23629596.1344
 01  4 25 23 14  0.0000000  0  9 22 21 18 17 15 06 26 23 03
  24051325.262     1019231.976 7    795578.20345  24051324.584    24051341.3704
  22700598.166    -6340737.419 8  -4929087.60546  22700597.693    22700609.1394
  20428076.662    -3448719.232 9  -2676989.82048  20428076.317    20428082.5294
  20659801.117    -1946757.034 9  -1511811.83547  20659800.658    20659808.0224
  20595486.325    -3756314.113 9  -2598284.89147  20595485.702    20595493.2124
  22174758.997     4178917.602 8   3250837.58846  22174758.934    22174768.6754
  22337372.980     1572009.306 8   1237669.26646  22337373.129    22337380.7774
  20696312.491    -1662652.218 9  -1286877.90448  20696312.041    20696319.2134
  23612106.221    -7325734.895 8  -5688384.85845  23612105.880    23612116.8164
 01  4 25 23 14 30.0000000  0  9 22 21 18 17 15 06 26 23 03
  24060663.074     1068301.962 7    833814.35845  24060662.390    24060679.2414
  22689165.597    -6400815.318 8  -4975901.34346  22689165.158    22689176.5014
  20425715.074    -3461129.410 9  -2686660.04948  20425714.732    20425720.9134
  20660080.004    -1945291.702 9  -1510670.00847  20660079.535    20660086.8844
  20590884.030    -3780499.350 9  -2617130.50447  20590883.408    20590890.9054
  22192446.361     4271864.853 8   3323263.87246  22192446.289    22192456.1164
  22349522.118     1635853.748 8   1287418.16146  22349522.277    22349529.9594
  20698324.336    -1652079.817 9  -1278639.64648  20698323.888    20698331.0434
  23594675.086    -7417335.173 8  -5759761.53645  23594674.816    23594685.6644
 01  4 25 23 15  0.0000000  0  9 22 21 18 17 15 06 26 23 03
  24070061.784     1117691.491 7    872299.49745  24070061.063    24070077.9344
  22677779.385    -6460649.523 8  -5022525.18546  22677778.940    22677790.2094
  20423429.568    -3473139.778 9  -2696018.74248  20423429.224    20423435.4004
  20660402.970    -1943594.600 9  -1509347.58147  20660402.491    20660409.8294
  20586324.508    -3804459.785 9  -2635800.95047  20586323.865    20586331.3644
  22210193.391     4365125.634 8   3395934.47946  22210193.323    22210203.1724
  22361770.959     1700221.686 8   1337574.98546  22361771.098    22361778.7914
  20700397.473    -1641185.458 9  -1270150.51147  20700397.013    20700404.1524
  23577292.662    -7508679.799 8  -5830939.00345  23577292.420    23577303.2044
 01  4 25 23 15 30.0000000  0  9 22 21 18 17 15 06 26 23 03
  24079520.990     1167399.022 7    911032.45145  24079520.285    24079537.2634
  22666439.623    -6520239.532 8  -5068958.75546  22666439.191    22666450.4154
  20421220.066    -3484750.655 9  -2705066.14348  20421219.704    20421225.8664
  20660770.281    -1941664.278 9  -1507843.42547  20660769.797    20660777.1334
  20581808.041    -3828193.955 9  -2654295.08147  20581807.411    20581814.8574
  22227999.805     4458698.473 8   3468848.24246  22227999.716    22228009.5844
  22374119.082     1765111.353 8   1388138.34446  22374119.209    22374126.8774
  20702531.694    -1629969.910 9  -1261411.10348  20702531.246    20702538.3844
  23559959.481    -7599765.374 8  -5901914.62345  23559959.290    23559970.0504
 01  4 25 23 16  0.0000000  0  9 22 21 18 17 15 06 26 23 03
  24089039.944     1217420.912 7    950010.32845  24089039.214    24089056.2484
  22655146.226    -6579585.867 8  -5115202.44946  22655145.799    22655156.9414
  20419086.196    -3495964.094 9  -2713803.85948  20419085.841    20419091.9914
  20661181.961    -1939500.938 9  -1506157.70047  20661181.472    20661188.7874
  20577334.632    -3851701.774 9  -2672612.84047  20577334.008    20577341.4414
  22245865.001     4552580.082 8   3542002.59546  22245864.888    22245874.7854
  22386565.918     1830519.624 8   1439105.80946  22386566.042    22386573.7014
  20704726.601    -1618435.529 9  -1252423.25848  20704726.137    20704733.2684
  23542675.876    -7690590.637 8  -5972687.41245  23542675.645    23542686.4444
 01  4 25 23 16 30.0000000  0  9 22 21 18 17 15 06 26 23 03
  24098618.392     1267755.455 7    989231.84845  24098617.664    24098634.7634
  22643899.256    -6638688.293 8  -5161256.07646  22643898.865    22643909.9124
  20417028.064    -3506779.598 9  -2722231.48848  20417027.726    20417033.8534
  20661638.324    -1937102.698 9  -1504288.93147  20661637.836    20661645.1494
  20572904.656    -3874981.564 9  -2690752.90847  20572904.015    20572911.4454
  22263788.716     4646769.236 8   3615396.60946  22263788.599    22263798.5404
  22399111.140     1896445.055 8   1490476.25146  22399111.278    22399118.9204
  20706982.164    -1606582.515 9  -1243187.12048  20706981.695    20706988.8164
  23525442.502    -7781152.048 8  -6043254.59945  23525442.285    23525453.0644
 01  4 25 23 17  0.0000000  0  9 22 21 18 17 15 06 26 23 03
  24108255.714     1318398.928 7   1028694.08045  24108255.021    24108272.1284
  22632698.625    -6697547.050 8  -5207119.83646  22632698.229    22632709.2554
  20415045.390    -3517198.645 9  -2730350.19548  20415045.028    20415051.1374
  20662139.413    -1934469.370 9  -1502236.98147  20662138.919    20662146.2494
  20568518.115    -3898032.909 9  -2708714.97247  20568517.472    20568524.8984
  22281770.456     4741263.267 8   3689028.18446  22281770.341    22281780.3054
  22411754.259     1962884.924 8   1542247.55846  22411754.405    22411762.0464
  20709297.921    -1594413.163 9  -1233704.49148  20709297.432    20709304.5614
  23508259.691    -7871447.782 8  -6113614.76545  23508259.341    23508270.2974
 01  4 25 23 17 30.0000000  0  9 22 21 18 17 15 06 26 23 03
  24117951.424     1369349.364 7   1068395.52945  24117950.770    24117967.8064
  22621544.360    -6756162.340 8  -5252793.88946  22621544.001    22621554.9424
  20413137.897    -3527222.461 9  -2738160.92848  20413137.539    20413143.6534
  20662685.466    -1931599.964 9  -1500001.07647  20662684.981    20662692.3014
  20564175.208    -3920854.953 9  -2726498.35947  20564174.568    20564181.9904
  22299809.744     4836059.799 8   3762895.46146  22299809.653    22299819.6364
  22424494.784     2029836.728 8   1594417.77146  22424494.925    22424502.5334
  20711673.601    -1581928.854 9  -1223976.43847  20711673.117    20711680.2334
  23491127.957    -7961475.083 8  -6183765.77545  23491127.611    23491138.4754
 01  4 25 23 18  0.0000000  0  9 22 21 18 17 15 06 26 23 03
  24127705.096     1420604.797 7   1108334.62345  24127704.428    24127721.5354
  22610436.577    -6814533.453 8  -5298277.67346  22610436.201    22610447.0764
  20411305.575    -3536851.128 9  -2745663.75548  20411305.238    20411311.3494
  20663276.613    -1928493.393 9  -1497580.36747  20663276.122    20663283.4374
  20559876.165    -3943446.489 9  -2744102.12747  20559875.514    20559882.9434
  22317906.316     4931157.160 8   3836997.15546  22317906.185    22317916.2454
  22437332.389     2097298.448 8   1646985.33646  22437332.488    22437340.0724
  20714109.049    -1569130.398 9  -1214003.59747  20714108.571    20714115.6764
  23474047.916    -8051230.720 8  -6253705.09445  23474047.575    23474058.3564
 01  4 25 23 18 30.0000000  0  9 22 21 18 17 15 06 26 23 03
  24137516.178     1472161.615 7   1148508.57045  24137515.505    24137532.6844
  22599375.074    -6872661.216 8  -5343571.83946  22599374.709    22599385.5394
  20409548.170    -3546086.172 9  -2752859.86248  20409547.824    20409553.9544
  20663912.981    -1925149.404 9  -1494974.65747  20663912.471    20663919.8064
  20555621.028    -3965807.217 9  -2761526.04247  20555620.380    20555627.8094
  22336059.557     5026552.246 8   3911330.84546  22336059.398    22336069.4864
  22450266.387     2165267.279 8   1699948.03246  22450266.524    22450274.1464
  20716603.865    -1556020.005 9  -1203787.68847  20716603.384    20716610.4894
  23457019.864    -8140712.936 8  -6323431.35445  23457019.554    23457030.3004
 01  4 25 23 19  0.0000000  0  9 22 21 18 17 15 06 26 23 03
  24147384.285     1524017.867 7   1188915.82445  24147383.683    24147400.8514
  22588360.083    -6930544.537 8  -5388675.52646  22588359.734    22588370.4834
  20407865.658    -3554927.666 9  -2759749.30648  20407865.319    20407871.4344
  20664594.876    -1921566.137 9  -1492182.50147  20664594.379    20664601.6894
  20551410.160    -3987935.521 9  -2778768.84947  20551409.505    20551416.9444
  22354269.192     5122243.976 8   3985895.67646  22354269.051    22354279.1504
  22463296.632     2233741.726 8   1753304.72446  22463296.793    22463304.4264
  20719157.923    -1542598.188 9  -1193329.11447  20719157.456    20719164.5684
  23440044.709    -8229918.177 8  -6392941.79645  23440044.315    23440054.9484
 01  4 25 23 19 30.0000000  0  9 22 21 18 17 15 06 26 23 03
  24157308.692     1576169.995 7   1229553.64445  24157308.104    24157325.3304
  22577391.419    -6988184.643 8  -5433589.70046  22577391.097    22577401.7754
  20406257.714    -3563377.560 9  -2766333.61548  20406257.362    20406263.4594
  20665322.195    -1917743.903 9  -1489204.13647  20665321.706    20665329.0354
  20547243.427    -4009831.555 9  -2795830.66647  20547242.790    20547250.2234
  22372534.634     5218229.003 8   4060689.06146  22372534.526    22372544.6294
  22476422.470     2302718.239 8   1807052.63346  22476422.606    22476430.2494
  20721770.796    -1528867.481 9  -1182629.84447  20721770.317    20721777.4274
  23423122.374    -8318845.293 8  -6462235.51945  23423122.000    23423132.5324
 01  4 25 23 20  0.0000000  0  9 22 21 18 17 15 06 26 23 03
  24167289.201     1628616.722 7   1270421.00645  24167288.564    24167305.7684
  22566469.138    -7045580.651 8  -5478313.67046  22566468.809    22566479.4814
  20404724.264    -3571435.650 9  -2772612.61048  20404723.914    20404730.0144
  20666095.357    -1913680.911 9  -1486038.16547  20666094.890    20666102.2214
  20543121.275    -4031493.520 9  -2812710.09047  20543120.644    20543128.0934
  22390855.612     5314506.007 8   4135709.96546  22390855.503    22390865.7124
  22489643.527     2372195.393 8   1861190.65146  22489643.684    22489651.3594
  20724442.356    -1514828.363 9  -1171690.25547  20724441.887    20724448.9884
  23406253.562    -8407490.762 8  -6531309.76245  23406253.208    23406263.7424
 01  4 25 23 20 30.0000000  0  9 22 21 18 17 15 06 26 23 03
  24177325.177     1681354.846 7   1311515.43445  24177324.476    24177341.8424
  22555593.280    -7102733.213 8  -5522847.95346  22555592.948    22555603.4914
  20403265.093    -3579103.564 9  -2778587.57948  20403264.754    20403270.8394
  20666914.402    -1909376.810 9  -1482684.32247  20666913.933    20666921.2634
  20539043.746    -4052920.900 9  -2829406.72347  20539043.116    20539050.5474
  22409231.532     5411072.044 8   4210956.08346  22409231.432    22409241.7594
  22502959.305     2442170.351 8   1915716.56546  22502959.515    22502967.1824
  20727172.174    -1500482.918 9  -1160511.97547  20727171.688    20727178.7944
  23389438.744    -8495852.518 8  -6600162.96445  23389438.399    23389448.9054
 01  4 25 23 21  0.0000000  0  9 22 21 18 17 15 06 26 23 03
  24187416.062     1734382.164 7   1352835.19345  24187415.400    24187432.7114
  22544763.801    -7159641.957 8  -5567192.24046  22544763.435    22544773.9474
  20401880.143    -3586381.490 9  -2784258.65748  20401879.803    20401885.8724
  20667779.638    -1904830.026 9  -1479141.36947  20667779.164    20667786.4804
  20535011.189    -4074112.149 9  -2845919.35647  20535010.568    20535017.9894
  22427662.262     5507925.542 8   4286426.19446  22427662.162    22427672.5544
  22516369.516     2512641.207 8   1970628.90546  22516369.752    22516377.3604
  20729960.179    -1485831.830 9  -1149095.52547  20729959.698    20729966.8264
  23372678.529    -8583927.065 8  -6668792.34045  23372678.251    23372688.7294
 01  4 25 23 21 30.0000000  0  9 22 21 18 17 15 06 26 23 03
  24197561.208     1787694.468 7   1394377.03345  24197560.548    24197578.0364
  22533980.503    -7216307.777 8  -5611347.24146  22533980.121    22533990.6314
  20400569.010    -3593271.487 9  -2789627.45948  20400568.660    20400574.7314
  20668690.980    -1900040.938 9  -1475409.61447  20668690.513    20668697.8134
  20531023.492    -4095067.461 9  -2862248.14847  20531022.879    20531030.2874
  22446147.048     5605063.140 8   4362117.69046  22446146.925    22446157.3904
  22529873.407     2583604.353 8   2025924.83746  22529873.633    22529881.2234
  20732805.828    -1470877.671 9  -1137442.92147  20732805.358    20732812.4814
  23355973.278    -8671713.068 8  -6737196.90745  23355973.056    23355983.4054
 01  4 25 23 22  0.0000000  0  9 22 21 18 17 15 06 26 23 03
  24207760.265     1841290.190 7   1436139.71245  24207759.546    24207777.2194
  22523243.556    -7272729.902 8  -5655312.35246  22523243.184    22523253.6634
  20399331.603    -3599773.907 9  -2794694.24548  20399331.267    20399337.3254
  20669648.728    -1895007.925 9  -1471487.78247  20669648.250    20669655.5484
  20527080.983    -4115785.515 9  -2878392.05547  20527080.368    20527087.7734
  22464685.602     5702483.162 8   4438029.24346  22464685.492    22464695.9334
  22543470.631     2655058.012 8   2081602.98946  22543470.830    22543478.3954
  20735709.078    -1455621.096 9  -1125554.66447  20735708.628    20735715.7144
  23339323.554    -8759207.558 8  -6805374.30945  23339323.353    23339333.6834
 01  4 25 23 22 30.0000000  0  9 22 21 18 17 15 06 26 23 03
  24218012.930     1895166.468 7   1478120.99945  24218012.189    24218029.8854
  22512552.905    -7328909.168 8  -5699088.23246  22512552.505    22512562.9184
  20398167.737    -3605889.996 9  -2799460.00348  20398167.393    20398173.4444
  20670652.910    -1889730.704 9  -1467375.66647  20670652.455    20670659.7534
  20523183.679    -4136265.952 9  -2894350.82047  20523183.056    20523190.4474
  22483277.363     5800182.746 8   4514158.64046  22483277.271    22483287.6774
  22557160.647     2726999.197 8   2137661.03046  22557160.812    22557168.3714
  20738669.473    -1440064.140 9  -1113432.35047  20738668.988    20738676.0884
  23322729.658    -8846408.625 8  -6873323.06945  23322729.451    23322739.7414
 01  4 25 23 23  0.0000000  0  9 22 21 18 17 15 06 26 23 03
  24228318.459     1949321.245 7   1520319.30645  24228317.664    24228335.4634
  22501908.563    -7384844.855 8  -5742674.31446  22501908.164    22501918.5204
  20397077.329    -3611620.259 9  -2803925.11248  20397076.977    20397083.0074
  20671703.960    -1884207.580 9  -1463071.93147  20671703.488    20671710.7784
  20519331.939    -4156506.997 9  -2910123.03847  20519331.313    20519338.6714
  22501922.011     5898160.187 8   4590504.55046  22501921.913    22501932.2954
  22570943.105     2799426.232 8   2194097.65146  22570943.261    22570950.8314
  20741686.854    -1424207.629 9  -1101076.61447  20741686.369    20741693.4644
  23306192.354    -8933312.587 8  -6941040.32545  23306192.059    23306202.2874
 01  4 25 23 23 30.0000000  0  9 22 21 18 17 15 06 26 23 03
  24238676.054     2003750.103 7   1562731.18145  24238675.214    24238693.1924
  22491310.381    -7440538.163 8  -5786071.52646  22491309.970    22491320.2784
  20396059.876    -3616966.808 9  -2808091.22448  20396059.522    20396065.5564
  20672801.660    -1878439.011 9  -1458576.93847  20672801.207    20672808.4704
  20515525.669    -4176509.020 9  -2925709.00747  20515525.038    20515532.3664
  22520618.834     5996411.994 8   4667064.24746  22520618.730    22520629.1464
  22584817.239     2872335.206 8   2250909.81146  22584817.396    22584824.9724
  20744760.728    -1408054.290 9  -1088489.58547  20744760.231    20744767.3134
  23289711.887    -9019918.102 8  -7008525.03346  23289711.538    23289721.6754
 01  4 25 23 24  0.0000000  0  9 22 21 18 17 15 06 26 23 03
  24249085.679     2058451.904 8   1605355.74645  24249084.888    24249102.6714
  22480758.555    -7495987.697 8  -5829278.79246  22480758.125    22480768.3874
  20395115.600    -3621928.934 9  -2811957.79248  20395115.255    20395121.2704
  20673946.602    -1872422.601 9  -1453888.82647  20673946.115    20673953.3794
  20511765.366    -4196269.623 9  -2941106.86047  20511764.701    20511772.0154
  22539367.795     6094937.570 8   4743837.24746  22539367.680    22539378.1014
  22598782.926     2945725.213 8   2308096.80446  22598783.078    22598790.6384
  20747891.091    -1391603.971 9  -1075671.14647  20747890.614    20747897.6894
  23273288.853    -9106221.397 8  -7075774.22046  23273288.518    23273298.6564
 01  4 25 23 24 30.0000000  0  9 22 21 18 17 15 06 26 23 03
  24259546.561     2113423.665 7   1648190.66345  24259545.855    24259563.6524
  22470252.930    -7551194.373 8  -5872296.81546  22470252.498    22470262.7514
  20394244.129    -3626508.528 9  -2815526.27748  20394243.769    20394249.7754
  20675138.671    -1866158.262 9  -1449007.51747  20675138.180    20675145.4344
  20508050.993    -4215788.706 9  -2956316.51647  20508050.332    20508057.6344
  22558168.165     6193733.772 8   4820821.13446  22558168.045    22558178.5234
  22612839.531     3019592.895 8   2365655.99946  22612839.687    22612847.1934
  20751077.588    -1374858.800 9  -1062622.94847  20751077.098    20751084.1854
  23256923.664    -9192220.522 8  -7142786.40446  23256923.337    23256933.4734
 01  4 25 23 25  0.0000000  0  9 22 21 18 17 15 06 26 23 03
  24270058.386     2168662.672 8   1691233.82645  24270057.658    24270075.4744
  22459793.514    -7606158.104 8  -5915125.54346  22459793.099    22459803.3674
  20393445.258    -3630706.592 9  -2818797.47248  20393444.892    20393450.9024
  20676378.066    -1859645.171 9  -1443932.38247  20676377.602    20676384.8144
  20504382.834    -4235065.012 9  -2971336.99347  20504382.172    20504389.4634
  22577019.631     6292798.262 8   4898014.08746  22577019.534    22577030.0144
  22626986.511     3093935.731 8   2423585.45446  22626986.643    22626994.2244
  20754319.898    -1357820.337 9  -1049346.21247  20754319.414    20754326.4954
  23240616.835    -9277913.011 8  -7209559.66346  23240616.576    23240626.5894
 01  4 25 23 25 30.0000000  0  9 22 21 18 17 15 06 26 23 03
  24280620.692     2224166.538 8   1734483.36745  24280619.916    24280637.6694
  22449380.409    -7660878.726 8  -5957764.83246  22449379.978    22449390.2234
  20392718.892    -3634523.540 9  -2821771.69248  20392718.535    20392724.5084
  20677665.084    -1852881.908 9  -1438662.30647  20677664.601    20677671.8284
  20500761.022    -4254097.574 9  -2986167.54447  20500760.359    20500767.6564
  22595921.712     6392128.983 8   4975414.48846  22595921.608    22595932.2024
  22641223.501     3168751.592 8   2481883.49946  22641223.617    22641231.2414
  20757617.787    -1340489.770 9  -1035841.86547  20757617.311    20757624.3794
  23224368.959    -9363295.822 8  -7276091.59046  23224368.664    23224378.7114
 01  4 25 23 26  0.0000000  0  9 22 21 18 17 15 06 26 23 03
  24291232.533     2279931.707 7   1777936.52545  24291231.780    24291249.6444
  22439013.462    -7715356.738 8  -6000215.08046  22439013.045    22439023.2824
  20392064.804    -3637960.746 9  -2824450.01048  20392064.418    20392070.4084
  20678999.777    -1845868.042 9  -1433196.95147  20678999.307    20679006.5354
  20497185.753    -4272885.736 9  -3000807.65247  20497185.104    20497192.3814
  22614874.024     6491723.245 8   5053020.23646  22614873.928    22614884.5604
  22655549.991     3244037.533 8   2540547.83746  22655550.039    22655557.7514
  20760970.944    -1322868.871 9  -1022111.28247  20760970.469    20760977.5354
  23208180.382    -9448366.784 8  -7342380.52946  23208180.122    23208190.1544
 01  4 25 23 26 30.0000000  0  9 22 21 18 17 15 06 26 23 03
  24301893.545     2335955.150 7   1821590.93645  24301892.819    24301910.8444
  22428692.462    -7769593.206 8  -6042477.11046  22428692.030    22428702.2734
  20391482.605    -3641020.062 9  -2826833.87448  20391482.240    20391488.2254
  20680382.209    -1838603.342 9  -1427536.14047  20680381.730    20680388.9694
  20493657.034    -4291429.180 9  -3015257.07247  20493656.367    20493663.6704
  22633875.862     6591578.185 8   5130829.11646  22633875.783    22633886.4774
  22669965.257     3319790.411 8   2599576.02146  22669965.370    22669973.1304
  20764378.929    -1304959.725 9  -1008156.09347  20764378.450    20764385.5174
  23192051.496    -9533123.997 8  -7408424.98046  23192051.247    23192061.2614
 01  4 25 23 27  0.0000000  0  9 22 21 18 17 15 06 26 23 03
  24312603.609     2392235.936 7   1865445.86045  24312602.915    24312621.0114
  22418417.759    -7823586.433 8  -6084549.60446  22418417.343    22418427.5464
  20390972.462    -3643700.961 9  -2828922.86248  20390972.094    20390978.0474
  20681812.795    -1831085.452 9  -1421678.04247  20681812.319    20681819.5614
  20490175.327    -4309725.588 9  -3029513.99647  20490174.667    20490181.9864
  22652927.186     6691692.800 8   5208840.33846  22652927.095    22652937.8374
  22684469.113     3396008.871 8   2658966.99346  22684469.279    22684477.0824
  20767841.775    -1286762.271 9   -993976.24847  20767841.293    20767848.3744
  23175983.101    -9617563.674 8  -7474222.00346  23175982.822    23175992.8174
 01  4 25 23 27 30.0000000  0  9 22 21 18 17 15 06 26 23 03
  24323361.968     2448769.936 7   1909498.11145  24323361.127    24323379.4394
  22408188.947    -7877338.639 8  -6126434.29246  22408188.524    22408198.6694
  20390533.837    -3646005.927 9  -2830718.91648  20390533.467    20390539.4104
  20683291.479    -1823315.022 9  -1415623.15847  20683290.996    20683298.2414
  20486740.543    -4327775.351 9  -3043578.72947  20486739.885    20486747.2044
  22672027.215     6792063.337 8   5287050.96346  22672027.092    22672037.8904
  22699060.920     3472689.008 8   2718717.71446  22699061.027    22699068.8754
  20771358.917    -1268279.563 9   -979574.12747  20771358.438    20771365.4994
  23159975.203    -9701684.745 8  -7539770.74746  23159974.963    23159984.9614
 01  4 25 23 28  0.0000000  0  9 22 21 18 17 15 06 26 23 03
  24334167.913     2505554.733 7   1953745.77145  24334167.057    24334185.4204
  22398006.284    -7930848.465 8  -6168130.11646  22398005.863    22398015.9294
  20390166.667    -3647935.359 9  -2832222.35248  20390166.292    20390172.2314
  20684818.530    -1815290.215 9  -1409370.06247  20684818.039    20684825.2924
  20483353.094    -4345576.512 9  -3057449.75347  20483352.440    20483359.7404
  22691175.542     6892688.002 8   5365459.60646  22691175.456    22691186.2764
  22713740.195     3549829.066 8   2778826.81646  22713740.294    22713748.1684
  20774930.204    -1249512.282 9   -964950.26347  20774929.725    20774936.8124
  23144028.786    -9785483.788 8  -7605068.58746  23144028.503    23144038.4124
 01  4 25 23 28 30.0000000  0  9 22 21 18 17 15 06 26 23 03
  24345021.058     2562586.857 7   1998186.15445  24345020.152    24345038.5764
  22387869.535    -7984116.959 8  -6209637.88646  22387869.111    22387879.1054
  20389870.710    -3649490.535 9  -2833434.15948  20389870.337    20389876.2704
  20686394.065    -1807010.797 9  -1402918.57047  20686393.568    20686400.8484
  20480012.941    -4363129.091 9  -3071127.07247  20480012.283    20480019.5994
  22710371.795     6993564.060 8   5444064.12746  22710371.686    22710382.5244
  22728506.329     3627425.749 8   2839291.72046  22728506.463    22728514.3924
  20778555.254    -1230462.498 9   -950106.26247  20778554.766    20778561.8534
  23128143.986    -9868958.586 8  -7670113.76446  23128143.710    23128153.6124
 01  4 25 23 29  0.0000000  0  9 22 21 18 17 15 06 26 23 03
  24355920.780     2619864.603 7   2042817.92745  24355919.947    24355938.3264
  22377778.871    -8037143.383 8  -6250957.03346  22377778.457    22377788.3544
  20389645.863    -3650671.989 9  -2834354.75448  20389645.482    20389651.4084
  20688018.318    -1798475.271 9  -1396267.51347  20688017.823    20688025.1194
  20476720.389    -4380431.618 9  -3084609.54647  20476719.722    20476727.0104
  22729615.525     7094689.815 8   5522863.22446  22729615.454    22729626.2894
  22743359.013     3705477.035 8   2900110.86246  22743359.160    22743367.1054
  20782233.905    -1211131.053 9   -935042.79147  20782233.429    20782240.5104
  23112321.373    -9952106.245 8  -7734904.03046  23112321.103    23112331.0244
 01  4 25 23 29 30.0000000  0  9 22 21 18 17 15 06 26 23 03
  24366866.575     2677384.705 7   2087638.54945  24366865.799    24366884.2794
  22367734.212    -8089928.077 8  -6292087.81747  22367733.790    22367743.6004
  20389491.803    -3651481.464 9  -2834985.49548  20389491.419    20389497.3434
  20689691.340    -1789683.438 9  -1389416.72747  20689690.855    20689698.1624
  20473475.459    -4397483.740 9  -3097896.89647  20473474.808    20473482.0964
  22748906.217     7196062.144 8   5601854.47346  22748906.099    22748916.9844
  22758297.590     3783979.479 8   2961281.56446  22758297.738    22758305.6604
  20785965.733    -1191520.218 9   -919761.60547  20785965.246    20785972.3234
  23096561.347   -10034925.054 8  -7799438.04946  23096561.114    23096570.9924
 01  4 25 23 30  0.0000000  0  9 22 21 18 17 15 06 26 23 03
  24377858.068     2735144.936 7   2132646.28445  24377857.380    24377875.8874
  22357735.340    -8142471.779 8  -6333030.82547  22357734.922    22357744.7274
  20389408.408    -3651919.592 9  -2835326.88048  20389408.027    20389413.9444
  20691413.396    -1780633.991 9  -1382365.21847  20691412.923    20691420.2184
  20470278.510    -4414283.753 9  -3110987.80747  20470277.852    20470285.1574
  22768243.470     7297679.255 8   5681036.44646  22768243.363    22768254.2504
  22773321.663     3862931.134 8   3022802.29446  22773321.817    22773329.6944
  20789750.542    -1171630.754 9   -904263.31647  20789750.066    20789757.1434
  23080864.653   -10117411.731 8  -7863713.27646  23080864.351    23080874.1554
 01  4 25 23 30 30.0000000  0  9 22 21 18 17 15 06 26 23 03
  24388894.615     2793141.248 7   2177837.96445  24388893.960    24388912.3864
  22347782.237    -8194775.251 8  -6373786.63347  22347781.813    22347791.5844
  20389395.391    -3651987.979 9  -2835380.14948  20389395.026    20389400.9304
  20693184.567    -1771326.566 9  -1375112.67647  20693184.067    20693191.3624
  20467129.564    -4430831.400 9  -3123882.06347  20467128.922    20467136.2204
  22787626.710     7399538.014 8   5760406.71246  22787626.594    22787637.5004
  22788430.524     3942328.545 8   3084670.36246  22788430.658    22788438.5224
  20793588.030    -1151464.752 9   -888549.53347  20793587.539    20793594.5984
  23065231.441   -10199564.393 8  -7927728.21546  23065231.133    23065240.9684
 01  4 25 23 31  0.0000000  0  9 22 21 18 17 15 06 26 23 03
  24399975.733     2851371.516 7   2223211.93145  24399974.999    24399993.5324
  22337874.904    -8246837.941 8  -6414354.82347  22337874.462    22337884.2314
  20389452.656    -3651687.110 9  -2835145.69248  20389452.296    20389458.1604
  20695005.059    -1761759.862 9  -1367658.11047  20695004.566    20695011.8614
  20464028.919    -4447125.427 9  -3136578.69747  20464028.278    20464035.5724
  22807055.506     7501636.312 8   5839963.62046  22807055.424    22807066.3974
  22803623.836     4022169.566 8   3146884.10746  22803623.979    22803631.7574
  20797477.937    -1131023.235 9   -872621.07347  20797477.446    20797484.4864
  23049662.341   -10281380.188 8  -7991480.68146  23049662.081    23049671.8774
 01  4 25 23 31 30.0000000  0  9 22 21 18 17 15 06 26 23 03
  24411100.863     2909833.487 7   2268766.45845  24411100.147    24411118.7064
  22328013.339    -8298659.998 8  -6454735.50747  22328012.929    22328022.7124
  20389579.869    -3651018.529 9  -2834624.70048  20389579.498    20389585.3554
  20696875.083    -1751932.974 9  -1360000.79447  20696874.592    20696881.8504
  20460976.722    -4463164.777 9  -3149076.87347  20460976.081    20460983.3704
  22826529.489     7603971.956 8   5919705.48046  22826529.452    22826540.3744
  22818901.023     4102451.457 8   3209441.37946  22818901.143    22818908.9394
  20801419.931    -1110307.900 9   -856479.24347  20801419.447    20801426.4864
  23034157.824   -10362856.496 8  -8054968.60946  23034157.565    23034167.2884
 01  4 25 23 32  0.0000000  0  9 22 21 18 17 15 06 26 23 03
  24422269.497     2968524.346 7   2314499.33445  24422268.775    24422287.4724
  22318197.557    -8350241.679 8  -6494928.89147  22318197.154    22318206.8884
  20389776.891    -3649983.174 9  -2833817.91348  20389776.522    20389782.3934
  20698794.738    -1741845.237 9  -1352140.22547  20698794.243    20698801.4874
  20457973.135    -4478948.712 9  -3161376.02947  20457972.500    20457979.7714
  22846048.148     7706542.319 8   5999630.24546  22846048.109    22846059.0754
  22834261.578     4183171.434 8   3272340.03046  22834261.669    22834269.4374
  20805413.748    -1089320.276 9   -840125.24447  20805413.262    20805420.2924
  23018718.297   -10443991.308 8  -8118190.44846  23018718.083    23018727.7214
 01  4 25 23 32 30.0000000  0  9 22 21 18 17 15 06 26 23 03
  24433481.113     3027440.946 7   2360408.12145  24433480.393    24433499.2484
  22308427.510    -8401583.223 8  -6534935.15247  22308427.087    22308436.7784
  20390043.527    -3648581.971 9  -2832726.04648  20390043.147    20390049.0214
  20700764.224    -1731495.592 9  -1344075.56847  20700763.729    20700770.9694
  20455018.342    -4494476.174 9  -3173475.33447  20455017.696    20455024.9634
  22865610.991     7809345.079 8   6079736.07746  22865610.946    22865621.9994
  22849704.955     4264326.815 8   3335577.94646  22849705.018    22849712.8034
  20809459.131    -1068061.652 9   -823560.07647  20809458.642    20809465.6584
  23003344.395   -10524781.701 8  -8181143.90446  23003344.106    23003353.7414
 01  4 25 23 33  0.0000000  0  9 22 21 18 17 15 06 26 23 03
  24444735.356     3086580.357 7   2406490.51045  24444734.602    24444753.3144
  22298703.209    -8452684.433 8  -6574754.14747  22298702.789    22298712.3784
  20390379.553    -3646815.998 9  -2831349.94348  20390379.164    20390385.0324
  20702783.702    -1720883.026 9  -1335806.03547  20702783.201    20702790.4604
  20452112.602    -4509745.941 9  -3185373.83647  20452111.958    20452119.2194
  22885217.579     7912377.835 8   6160021.12146  22885217.533    22885228.6894
  22865230.740     4345915.084 8   3399153.17946  22865230.791    22865238.6514
  20813555.814    -1046533.359 9   -806784.77247  20813555.325    20813562.3604
  22988036.398   -10605225.250 8  -8243827.07646  22988036.114    22988045.7774
 01  4 25 23 33 30.0000000  0  9 22 21 18 17 15 06 26 23 03
  24456031.153     3145939.636 7   2452744.22645  24456030.492    24456049.1414
  22289024.337    -8503546.806 8  -6614387.03547  22289023.910    22289033.4384
  20390784.681    -3644687.112 9  -2829691.05048  20390784.304    20390790.1724
  20704853.292    -1710007.297 9  -1327331.44547  20704852.799    20704860.0774
  20449255.967    -4524757.677 9  -3197071.27747  20449255.305    20449262.5764
  22904867.428     8015637.657 8   6240483.11646  22904867.380    22904878.5794
  22880838.251     4427932.812 8   3463063.05546  22880838.325    22880846.1924
  20817703.372    -1024737.711 9   -789801.14247  20817702.904    20817709.9264
  22972794.703   -10685320.030 8  -8306238.50346  22972794.495    22972804.0764
 01  4 25 23 34  0.0000000  0  9 22 21 18 17 15 06 26 23 03
  24467368.540     3205517.357 7   2499168.15545  24467367.784    24467386.7874
  22279391.130    -8554169.268 8  -6653832.98647  22279390.709    22279400.1544
  20391258.856    -3642195.101 9  -2827749.20948  20391258.485    20391264.3304
  20706973.279    -1698866.438 9  -1318650.25947  20706972.811    20706980.0994
  20446448.800    -4539509.410 9  -3208566.12147  20446448.129    20446455.4034
  22924560.240     8119123.297 8   6321121.06646  22924560.197    22924571.4234
  22896527.097     4510378.468 8   3527306.37946  22896527.244    22896535.0954
  20821901.813    -1002674.850 9   -772609.29947  20821901.318    20821908.3464
  22957620.193   -10765062.372 8  -8368375.30946  22957619.981    22957629.4614
 01  4 25 23 34 30.0000000  0  9 22 21 18 17 15 06 26 23 03
  24478746.945     3265310.492 7   2545759.93245  24478746.106    24478765.1884
  22269803.482    -8604552.054 8  -6693092.17347  22269803.076    22269812.5024
  20391801.901    -3639341.439 9  -2825525.55548  20391801.530    20391807.3714
  20709143.925    -1687459.691 9  -1309761.88347  20709143.448    20709150.7334
  20443691.245    -4554000.306 9  -3219857.71247  20443690.598    20443697.8664
  22944295.500     8222831.979 8   6401932.82146  22944295.444    22944306.7244
  22912296.863     4593248.993 8   3591880.78446  22912297.007    22912304.8294
  20826150.705     -980346.674 9   -755210.70947  20826150.216    20826157.2364
  22942513.127   -10844449.948 8  -8430235.66046  22942512.889    22942522.3964
 01  4 25 23 35  0.0000000  0  9 22 21 18 17 15 06 26 23 03
  24490165.458     3325314.118 7   2592515.72345  24490164.672    24490183.7754
  22260261.102    -8654697.020 8  -6732166.05047  22260260.683    22260270.1274
  20392413.194    -3636128.854 9  -2823022.22548  20392412.816    20392418.6834
  20711364.980    -1675787.869 9  -1300666.95747  20711364.501    20711371.7924
  20440983.187    -4568231.165 9  -3230946.67547  20440982.562    20440989.8224
  22964072.441     8326759.688 8   6482915.23046  22964072.364    22964083.7184
  22928146.654     4676540.035 8   3656782.83946  22928146.824    22928154.6414
  20830449.532     -957756.160 9   -737607.70347  20830449.030    20830456.0604
  22927473.731   -10923481.999 8  -8491819.00246  22927473.550    22927482.9704
 01  4 25 23 35 30.0000000  0 10 22 21 18 17 15 06 14 26 23 03
  24501623.454     3385525.356 7   2639433.31645  24501622.649    24501641.5784
  22250763.994    -8704604.199 8  -6771054.63847  22250763.567    22250773.0244
  20393092.629    -3632558.331 9  -2820239.98248  20393092.266    20393098.1074
  20713636.672    -1663850.029 9  -1291364.74547  20713636.198    20713643.4754
  20438324.829    -4582200.836 9  -3241832.11847  20438324.202    20438331.4254
  22983890.568     8430904.106 8   6564066.49746  22983890.533    22983901.9484
  24652056.394                                    24652327.719    24652262.6584
  22944075.907     4760248.844 8   3722010.45146  22944076.047    22944083.9264
  20834797.996     -934904.733 9   -719801.38547  20834797.500    20834804.5424
  22912502.526   -11002156.047 8  -8553123.36146  22912502.335    22912511.6894
 01  4 25 23 36  0.0000000  0 10 22 21 18 17 15 06 14 26 23 03
  24513119.716     3445937.439 7   2686507.38345  24513118.921    24513137.8184
  22241311.154    -8754278.840 8  -6809762.03347  22241310.721    22241320.1444
  20393839.060    -3628635.800 9  -2817183.44648  20393838.689    20393844.5304
  20715958.280    -1651649.943 9  -1281858.18447  20715957.801    20715965.0634
  20435715.458    -4595913.236 9  -3252517.08747  20435714.799    20435722.0294
  23003748.656     8535258.023 8   6645381.02446  23003748.586    23003760.0734
  24630922.903                                    24630611.083    24630581.4564
  22960083.262     4844368.082 8   3787557.87145  22960083.395    22960091.2444
  20839194.945     -911798.583 9   -701796.58447  20839194.446    20839201.4834
  22897598.958   -11080474.010 8  -8614150.25046  22897598.833    22897608.1834
 01  4 25 23 36 30.0000000  0 10 22 21 18 17 15 06 14 26 23 03
  24524655.294     3506556.680 7   2733742.85945  24524654.554    24524673.4824
  22231904.306    -8803711.938 8  -6848281.20747  22231903.854    22231913.2454
  20394653.997    -3624353.245 9  -2813846.37148  20394653.625    20394659.4484
  20718331.716    -1639177.587 9  -1272139.46747  20718331.208    20718338.4904
  20433157.018    -4609357.870 9  -3262993.40847  20433156.370    20433163.6004
  23023647.847     8639828.123 8   6726863.99046  23023647.820    23023659.3174
  24609164.267                                    24608888.691    24608817.1274
  22976169.921     4928904.048 8   3853430.01345  22976170.048    22976177.9524
  20843641.841     -888430.035 9   -683587.31647  20843641.347    20843648.3554
  22882765.389   -11158424.520 8  -8674890.81146  22882765.291    22882774.6684
 01  4 25 23 37  0.0000000  0 10 22 21 18 17 15 06 14 26 23 03
  24536229.175     3567377.249 7   2781135.22945  24536228.352    24536247.4214
  22222542.753    -8852906.742 8  -6886614.70947  22222542.304    22222551.6704
  20395536.728    -3619714.511 9  -2810231.75448  20395536.354    20395542.1784
  20720756.578    -1626434.918 9  -1262210.11447  20720756.059    20720763.3584
  20430649.183    -4622536.696 9  -3273262.60647  20430648.536    20430655.7484
  23043587.241     8744609.196 8   6808511.35746  23043587.136    23043598.7364
  24587409.148                                    24587159.224    24587143.4184
  22992334.922     5013851.209 8   3919622.56245  22992334.977    22992342.9454
  20848137.816     -864803.497 9   -665177.01447  20848137.285    20848144.3144
  22868001.694   -11236007.994 8  -8735345.38546  22868001.552    22868010.8794
 01  4 25 23 37 30.0000000  0 10 22 21 18 17 15 06 14 26 23 03
  24547841.034     3628396.894 7   2828682.68845  24547840.282    24547859.5064
  22213226.652    -8901862.586 8  -6924762.00547  22213226.214    22213235.5144
  20396487.171    -3614719.849 9  -2806339.79148  20396486.786    20396492.6124
  20723233.206    -1613419.973 9  -1252068.60447  20723232.695    20723240.0224
  20428192.303    -4635447.635 9  -3283323.06147  20428191.647    20428198.8464
  23063566.408     8849599.742 8   6890321.93146  23063566.315    23063577.9444
  24565657.904                                    24565431.256    24565375.6744
  23008577.732     5099207.666 8   3986134.04245  23008577.813    23008585.7954
  20852682.785     -840919.492 9   -646566.09247  20852682.259    20852689.2974
  22853308.459   -11313221.013 8  -8795511.27546  22853308.304    22853317.6014
 01  4 25 23 38  0.0000000  0 10 22 21 18 17 15 06 14 26 23 03
  24559490.054     3689611.762 7   2876382.26745  24559489.259    24559508.6834
  22203955.774    -8950580.685 8  -6962724.05547  22203955.362    22203964.6274
  20397504.809    -3609371.828 9  -2802172.48848  20397504.441    20397510.2794
  20725761.606    -1600133.194 9  -1241715.27947  20725761.114    20725768.4264
  20425786.286    -4648091.146 9  -3293175.13547  20425785.643    20425792.8494
  23083584.774     8954795.948 8   6972292.76446  23083584.707    23083596.3754
  24543910.904                                    24543712.072    24543693.4014
  23024897.699     5184969.254 8   4052961.20945  23024897.775    23024905.7684
  20857276.176     -816780.931 9   -627756.81947  20857275.659    20857282.6864
  22838685.962   -11390062.477 8  -8855387.65246  22838685.807    22838695.0614
 01  4 25 23 38 30.0000000  0 10 22 21 18 17 15 06 14 26 23 03
  24571175.693     3751019.641 7   2924232.26945  24571174.999    24571194.4924
  22194730.217    -8999060.693 8  -7000500.57847  22194729.819    22194739.0644
  20398589.581    -3603671.181 9  -2797730.41148  20398589.201    20398595.0604
  20728341.922    -1586573.516 9  -1231149.29947  20728341.438    20728348.7644
  20423431.425    -4660465.935 9  -3302817.81247  20423430.783    20423437.9934
  23103641.846     9060195.682 8   7054422.18046  23103641.791    23103653.5094
  24522168.666                                    24521985.902    24521959.4124
  23041294.273     5271133.474 8   4120102.11245  23041294.324    23041302.3064
  20861917.832     -792388.946 9   -608750.06947  20861917.315    20861924.3454
  22824134.759   -11466529.658 8  -8914972.37646  22824134.531    22824143.8064
 01  4 25 23 39  0.0000000  0 10 22 21 18 17 15 06 14 26 23 03
  24582897.688     3812617.448 7   2972230.24545  24582896.904    24582916.6484
  22185549.653    -9047304.226 8  -7038092.83947  22185549.244    22185558.4774
  20399741.105    -3597619.808 9  -2793015.04148  20399740.743    20399746.5974
  20730974.224    -1572740.508 9  -1220370.34047  20730973.756    20730981.0914
  20421127.825    -4672571.408 9  -3312250.63547  20421127.198    20421134.4064
  23123737.103     9165796.060 8   7136707.94446  23123737.000    23123748.8414
  24500431.562                                    24500266.359    24500224.4924
  23057766.776     5357697.200 8   4187554.30545  23057766.870    23057774.9194
  20866607.335     -767745.341 9   -589547.25447  20866606.839    20866613.8704
  22809655.043   -11542620.385 8  -8974263.75346  22809654.855    22809664.1584
 01  4 25 23 39 30.0000000  0 10 22 21 18 17 15 06 14 26 23 03
  24594654.981     3874401.703 7   3020373.53045  24594654.324    24594673.9524
  22176414.137    -9095311.239 8  -7075500.80047  22176413.728    22176422.9614
  20400959.180    -3591218.783 9  -2788027.21748  20400958.810    20400964.6454
  20733658.752    -1558633.381 9  -1209377.78147  20733658.277    20733665.5974
  20418875.599    -4684406.946 9  -3321473.11747  20418874.957    20418882.1724
  23143870.023     9271594.302 8   7219147.87746  23143869.882    23143881.8144
  24478700.141                                    24478527.148    24478501.6014
  23074314.716     5444657.262 8   4255315.34245  23074314.884    23074322.8674
  20871344.394     -742851.773 9   -570149.66147  20871343.909    20871350.9334
  22795247.431   -11618332.564 8  -9033260.16046  22795247.239    22795256.4694
 01  4 25 23 40  0.0000000  0 10 22 21 18 17 15 06 14 26 23 03
  24606447.521     3936369.874 7   3068660.11145  24606446.851    24606466.3994
  22167323.711    -9143081.594 8  -7112724.35047  22167323.282    22167332.4834
  20402243.631    -3584468.924 9  -2782767.56948  20402243.251    20402249.0794
  20736395.699    -1544250.800 9  -1198170.57647  20736395.222    20736402.5084
  20416675.033    -4695970.908 9  -3330483.98147  20416674.390    20416681.5754
  23164040.170     9377588.312 8   7301740.34846  23164040.098    23164052.0014
  24456975.070                                    24456774.357    24456785.9494
  23090937.729     5532011.471 8   4323383.51545  23090937.897    23090945.8984
  20876128.836     -717709.401 9   -550558.19447  20876128.347    20876135.3664
  22780912.437   -11693663.397 8  -9091959.43246  22780912.223    22780921.4014
 01  4 25 23 40 30.0000000  0 10 22 21 18 17 15 06 14 26 23 03
  24618274.166     3998518.137 7   3117087.00745  24618273.383    24618293.0494
  22158277.893    -9190617.384 8  -7149765.12647  22158277.474    22158286.6344
  20403593.937    -3577373.070 9  -2777238.32148  20403593.556    20403599.3704
  20739184.914    -1529593.431 9  -1186749.25847  20739184.431    20739191.7084
  20414526.041    -4707263.887 9  -3339283.68847  20414525.388    20414532.5674
  23184246.820     9483774.080 8   7384482.23845  23184246.750    23184258.7584
  24435256.299                                    24435029.961    24435107.6964
  23107634.853     5619755.355 8   4391755.31645  23107635.017    23107643.0014
  20880960.064     -692321.104 9   -530775.10047  20880959.582    20880966.6024
  22766650.183   -11768611.930 8  -9150360.79746  22766649.957    22766659.1544
 01  4 25 23 41  0.0000000  0 10 22 21 18 17 15 06 14 26 23 03
  24630134.894     4060845.371 7   3165653.34345  24630134.192    24630153.7424
  22149276.964    -9237917.345 8  -7186622.13947  22149276.535    22149285.6724
  20405010.210    -3569930.552 9  -2771438.94148  20405009.826    20405015.6404
  20742026.891    -1514658.738 9  -1175111.84247  20742026.414    20742033.6824
  20412429.142    -4718283.273 9  -3347870.20847  20412428.490    20412435.6544
  23204489.829     9590150.985 8   7467373.05845  23204489.795    23204501.7654
  24413544.823                                    24413299.265    24413420.7314
  23124405.949     5707887.777 8   4460429.88245  23124406.057    23124414.1414
  20885838.105     -666686.779 9   -510800.29447  20885837.606    20885844.6234
  22752461.380   -11843173.886 8  -9208460.93246  22752461.129    22752470.4124
 01  4 25 23 41 30.0000000  0 10 22 21 18 17 15 06 14 26 23 03
  24642028.875     4123347.291 7   3214355.83145  24642028.338    24642048.0264
  22140320.526    -9284983.304 8  -7223296.81147  22140320.086    22140329.1994
  20406491.917    -3562143.943 9  -2765371.44148  20406491.530    20406497.3524
  20744921.575    -1499447.212 9  -1163258.71347  20744921.100    20744928.3654
  20410384.220    -4729029.346 9  -3356243.75447  20410383.556    20410390.7294
  23224768.579     9696715.076 8   7550409.75945  23224768.467    23224780.4844
  24391840.825                                    24391571.446    24391734.6284
  23141250.144     5796404.527 8   4529403.91345  23141250.295    23141258.3704
  20890762.434     -640809.269 9   -490635.99347  20890761.936    20890768.9614
  22738346.390   -11917348.203 8  -9266259.01146  22738346.151    22738355.4524
 01  4 25 23 42  0.0000000  0 10 22 21 18 17 15 06 14 26 23 03
  24653955.616     4186021.454 7   3263192.51145  24653955.092    24653974.9314
  22131408.748    -9331814.449 8  -7259788.51747  22131408.345    22131417.3974
  20408039.017    -3554013.859 9  -2759036.29648  20408038.639    20408044.4574
  20747869.227    -1483957.198 9  -1151188.57947  20747868.739    20747875.9924
  20408391.637    -4739500.386 9  -3364402.98947  20408390.985    20408398.1454
  23245082.577     9803464.632 8   7633590.96845  23245082.444    23245094.5334
  24370144.811                                    24369856.130    24370056.6794
  23158167.083     5885303.380 8   4598675.69745  23158167.224    23158175.3434
  20895732.874     -614689.338 9   -470282.79447  20895732.376    20895739.4174
  22724305.837   -11991131.838 8  -9323752.67346  22724305.581    22724314.7764
 01  4 25 23 42 30.0000000  0 10 22 21 18 17 15 06 14 26 23 03
  24665914.668     4248864.960 7   3312161.14045  24665914.022    24665933.9584
  22122541.552    -9378411.386 8  -7296097.72447  22122541.154    22122550.1634
  20409651.225    -3545541.624 9  -2752434.54648  20409650.863    20409656.6704
  20750870.050    -1468187.900 9  -1138900.82647  20750869.562    20750876.8204
  20406451.576    -4749695.547 9  -3372347.25747  20406450.898    20406458.0574
  23265431.391     9910397.180 8   7716914.76845  23265431.267    23265443.3734
  24348457.367                                    24348143.451    24348153.1934
  23175156.221     5974581.522 8   4668243.02245  23175156.363    23175164.5274
  20900749.197     -588328.525 9   -449741.89847  20900748.713    20900755.7264
  22710339.954   -12064522.744 8  -9380940.33146  22710339.699    22710348.7834
 01  4 25 23 43  0.0000000  0 10 22 21 18 17 15 06 14 26 23 03
  24677905.406     4311875.294 7   3361259.76345  24677904.721    24677924.7644
  22113718.896    -9424774.598 8  -7332224.80947  22113718.491    22113727.4384
  20411328.269    -3536728.555 9  -2745567.20948  20411327.902    20411333.7074
  20753924.076    -1452138.810 9  -1126395.05247  20753923.588    20753930.8484
  20404564.115    -4759614.094 9  -3380075.97647  20404563.445    20404570.6104
  23285814.498    10017509.907 8   7800378.96345  23285814.346    23285826.4974
  24326150.350                                    24326437.818    24326456.7734
  23192216.869     6064235.759 8   4738103.41645  23192217.092    23192225.2774
  20905810.992     -561728.589 9   -429014.66947  20905810.498    20905817.5114
  22696449.161   -12137518.739 8  -9437820.24146  22696448.885    22696458.0124
 01  4 25 23 43 30.0000000  0 10 22 21 18 17 15 06 14 26 23 03
  24689927.306     4375049.604 7   3410486.15445  24689926.669    24689946.7214
  22104940.644    -9470904.262 8  -7368169.90647  22104940.229    22104949.1324
  20413069.967    -3527576.006 9  -2738435.34148  20413069.596    20413075.3944
  20757031.575    -1435808.965 9  -1113670.50847  20757031.096    20757038.3664
  20402729.467    -4769255.134 9  -3387588.45947  20402728.795    20402735.9684
  23306231.432    10124800.496 8   7883981.76745  23306231.212    23306243.4774
  24304481.542                                    24304742.227    24304771.8694
  23209348.661     6154263.237 8   4808254.64146  23209348.842    23209357.0234
  20910917.984     -534891.047 9   -408102.29347  20910917.503    20910924.5174
  22682634.028   -12210117.427 8  -9494390.56746  22682633.780    22682642.9044
 01  4 25 23 44  0.0000000  0 10 22 21 18 17 15 06 14 26 23 03
  24701979.835     4438384.986 7   3459838.06745  24701979.156    24701999.3074
  22096206.824    -9516800.515 8  -7403933.12447  22096206.415    22096215.3214
  20414876.101    -3518084.767 9  -2731039.55848  20414875.716    20414881.5034
  20760192.694    -1419197.170 9  -1100726.26547  20760192.208    20760199.4964
  20400947.932    -4778617.047 9  -3394883.43847  20400947.278    20400954.4444
  23326681.733    10232266.701 8   7967721.38745  23326681.554    23326693.9274
  24282822.808                                    24283057.909    24283111.1454
  23226550.903     6244661.566 8   4878694.84945  23226551.133    23226559.2844
  20916070.053     -507816.834 9   -387005.50047  20916069.566    20916076.5884
  22668895.081   -12282315.925 8  -9550649.07446  22668894.830    22668903.8554
 01  4 25 23 44 30.0000000  0 10 22 21 18 17 15 06 14 26 23 03
  24714062.427     4501877.853 7   3509312.69145  24714061.670    24714081.9504
  22087517.226    -9562464.251 8  -7439515.16347  22087516.810    22087525.6984
  20416746.357    -3508256.476 9  -2723381.13948  20416745.951    20416751.7384
  20763407.541    -1402303.084 9  -1087562.05647  20763407.062    20763414.3264
  20399219.602    -4787699.486 9  -3401960.64747  20399218.955    20399226.1184
  23347164.880    10339905.500 8   8051595.49645  23347164.724    23347177.1574
  24261174.485                                    24261400.272    24261454.4384
  23243822.990     6335427.103 8   4949421.18445  23243823.206    23243831.4304
  20921266.736     -480507.977 9   -365725.86647  20921266.239    20921273.2704
  22655232.655   -12354112.570 8  -9606594.44146  22655232.329    22655241.3484
 01  4 25 23 45  0.0000000  0 11 22 21 18 17 15 06 14 26 23 29 03
  24726174.518     4565525.611 7   3558908.01545  24726173.845    24726193.9784
  22078871.716    -9607896.230 8  -7474916.61347  22078871.306    22078880.1864
  20418680.414    -3498092.891 9  -2715461.45048  20418680.032    20418685.7944
  20766676.230    -1385126.054 9  -1074177.36947  20766675.750    20766683.0454
  20397544.558    -4796501.774 9  -3408819.55947  20397543.904    20397551.0744
  23367680.374    10447714.128 8   8135601.92345  23367680.222    23367692.7404
  24239537.123                                    24239754.927    24239796.9744
  23261164.420     6426556.982 8   5020431.42345  23261164.681    23261172.8954
  20926507.749     -452966.237 9   -344264.76747  20926507.260    20926514.2804
  24462771.768    -3011518.958 7  -2002612.06045  24462771.237    24462794.8704
  22641646.899   -12425505.336 8  -9662225.09846  22641646.654    22641655.6124
 01  4 25 23 45 30.0000000  0 11 22 21 18 17 15 06 14 26 23 29 03
  24738314.966     4629322.729 7   3608619.73745  24738314.331    24738334.5034
  22070269.720    -9653099.669 8  -7510139.97847  22070269.301    22070278.1614
  20420677.511    -3487597.962 9  -2707283.56848  20420677.129    20420682.8754
  20769998.356    -1367668.235 9  -1060573.88147  20769997.860    20770005.1624
  20395922.470    -4805025.832 9  -3415461.66647  20395921.817    20395928.9874
  23388227.155    10555687.067 8   8219736.38745  23388227.017    23388239.5194
  24217910.645                                    24218133.385    24218134.6944
  23278574.095     6518045.190 8   5091720.88045  23278574.368    23278582.5594
  20931792.229     -425196.072 9   -322625.66947  20931791.742    20931798.7534
  24441893.920    -3121231.053 7  -2088101.24745  24441893.510    24441916.9134
  22628137.982   -12496494.684 8  -9717541.39946  22628137.746    22628146.7244
 01  4 25 23 46  0.0000000  0 11 22 21 18 17 15 06 14 26 23 29 03
  24750484.372     4693271.421 7   3658449.56745  24750483.585    24750503.9474
  22061712.063    -9698070.010 8  -7545181.71647  22061711.665    22061720.4694
  20422738.403    -3476767.881 9  -2698844.53548  20422738.033    20422743.7574
  20773375.051    -1349923.620 9  -1046746.91847  20773374.562    20773381.8564
  20394354.487    -4813265.497 9  -3421882.17647  20394353.833    20394360.9934
  23408805.640    10663826.848 8   8304000.85045  23408805.451    23408818.1634
  24196296.530                                    24196504.229    24196524.0654
  23296052.445     6609893.960 8   5163291.29445  23296052.608    23296060.7794
  20937120.879     -397193.845 9   -300805.75047  20937120.383    20937127.4254
  24421023.783    -3230901.326 7  -2173557.82145  24421023.508    24421046.6674
  22614707.311   -12567073.304 8  -9772537.65246  22614707.094    22614716.0274
 01  4 25 23 46 30.0000000  0 11 22 21 18 17 15 06 14 26 23 29 03
  24762681.805     4757367.908 7   3708394.55045  24762681.032    24762701.4504
  22053198.722    -9742807.828 8  -7580042.26447  22053198.299    22053207.0644
  20424862.784    -3465604.121 9  -2690145.48548  20424862.412    20424868.1644
  20776806.411    -1331891.792 9  -1032696.15047  20776805.917    20776813.1904
  20392840.746    -4821220.227 9  -3428080.65747  20392840.091    20392847.2614
  23429415.368    10772130.510 8   8388393.01445  23429415.143    23429427.9454
  24174695.253                                    24174893.629    24174933.2984
  23313598.777     6702100.050 8   5235140.14745  23313598.961    23313607.0404
  20942493.284     -368961.423 9   -278806.45847  20942492.814    20942499.8634
  24400162.102    -3340527.705 7  -2258980.19545  24400161.871    24400184.6464
  22601355.122   -12637239.216 8  -9827212.30846  22601354.878    22601363.8464
 01  4 25 23 47  0.0000000  0 11 22 21 18 17 15 06 14 26 23 29 03
  24774906.564     4821608.534 7   3758451.86245  24774905.819    24774926.4444
  22044729.364    -9787314.295 8  -7614722.54047  22044728.942    22044737.6764
  20427050.258    -3454108.913 9  -2681188.16848  20427049.888    20427055.6044
  20780292.429    -1313572.630 9  -1018421.48647  20780291.943    20780299.2334
  20391381.311    -4828889.652 9  -3434056.82347  20391380.661    20391387.8044
  23450055.683    10880594.780 8   8472910.33045  23450055.424    23450068.3104
  24153106.916                                    24153304.375    24153335.1164
  23331212.306     6794659.795 8   5307264.57145  23331212.507    23331220.6484
  20947909.134     -340501.034 9   -256629.52747  20947908.645    20947915.6934
  24379308.990    -3450108.519 7  -2344367.05845  24379308.887    24379331.5544
  22588081.750   -12706990.991 8  -9881564.26546  22588081.496    22588090.5034
 01  4 25 23 47 30.0000000  0 11 22 21 18 17 15 06 14 26 23 29 03
  24787158.340     4885990.697 7   3808619.45645  24787157.558    24787178.4354
  22036303.812    -9831590.264 8  -7649223.21247  22036303.395    22036312.1534
  20429300.480    -3442283.978 9  -2671973.91948  20429300.110    20429305.8154
  20783833.242    -1294965.612 9  -1003922.52247  20783832.752    20783840.0584
  20389976.245    -4836273.414 9  -3439810.39747  20389975.584    20389982.7474
  23470725.945    10989216.802 8   8557550.56845  23470725.734    23470738.7454
  24131532.080                                    24131752.086    24131762.5664
  23348892.539     6887569.764 8   5379661.89345  23348892.679    23348900.9264
  20953367.993     -311814.641 9   -234276.49247  20953367.525    20953374.5494
  24358464.888    -3559641.658 7  -2429716.75345  24358464.827    24358487.3574
  22574887.555   -12776326.816 8  -9935592.10646  22574887.271    22574896.2004
 01  4 25 23 48  0.0000000  0 11 22 21 18 17 15 06 14 26 23 29 03
  24799436.635     4950512.088 8   3858895.53545  24799435.867    24799456.7614
  22027922.176    -9875635.535 8  -7683544.11347  22027921.757    22027930.5544
  20431613.307    -3430129.799 9  -2662503.11448  20431612.939    20431618.6664
  20787429.065    -1276069.471 9   -989198.26847  20787428.593    20787435.8904
  20388625.855    -4843369.736 9  -3445339.99247  20388625.199    20388632.3464
  23491425.927    11097994.751 8   8642312.29745  23491425.694    23491438.8024
  24109971.362                                    24110203.993    24110206.8814
  23366638.999     6980827.700 8   5452330.36545  23366639.142    23366647.3714
  20958869.693     -282903.089 9   -211748.00647  20958869.207    20958876.2404
  24337630.392    -3669124.434 7  -2515027.20745  24337630.330    24337652.6744
  22561772.997   -12845243.636 8  -9989293.44146  22561772.760    22561781.6804
 01  4 25 23 48 30.0000000  0 11 22 21 18 17 15 06 14 26 23 29 03
  24811740.628     5015168.799 7   3909277.06045  24811739.929    24811760.9314
  22019584.270    -9919451.416 8  -7717686.27247  22019583.839    22019592.5954
  20433988.403    -3417648.677 9  -2652777.55048  20433988.025    20433993.7534
  20791079.954    -1256883.999 9   -974248.55647  20791079.475    20791086.7634
  20387330.178    -4850178.389 9  -3450645.42847  20387329.515    20387336.6494
  23512154.898    11206925.094 8   8727192.77345  23512154.704    23512167.8204
  24088425.141                                    24088656.380    24088669.2314
  23384450.967     7074429.822 8   5525267.03245  23384451.081    23384459.3154
  20964413.790     -253768.623 9   -189045.82047  20964413.299    20964420.3214
  24316805.850    -3778555.050 7  -2600297.03545  24316805.787    24316827.8934
  22548738.513   -12913740.022 8 -10042667.17146  22548738.303    22548747.1624
 01  4 25 23 49  0.0000000  0 10 21 18 17 15 06 14 26 23 29 03
  22011290.681    -9963034.339 8  -7751646.91647  22011290.231    22011298.9294
  20436426.206    -3404837.834 9  -2642795.06148  20436425.827    20436431.5334
  20794786.768    -1237404.667 9   -959069.86547  20794786.279    20794793.5644
  20386090.239    -4856694.424 9  -3455722.85747  20386089.564    20386096.6774
  23532913.102    11316009.151 8   8812193.01245  23532912.883    23532926.1344
  24066894.508                                    24067138.926    24067145.6684
  23402328.650     7168377.232 8   5598472.75145  23402328.685    23402336.9884
  20970000.805     -224408.722 9   -166167.97447  20970000.311    20970007.3444
  24295992.484    -3887927.254 7  -2685521.34145  24295992.316    24296014.2844
  22535785.242   -12981809.996 8 -10095708.62746  22535785.001    22535793.8204
 01  4 25 23 49 30.0000000  0 10 21 18 17 15 06 14 26 23 29 03
  22003040.822   -10006387.304 8  -7785428.37047  22003040.372    22003049.0234
  20438925.997    -3391701.303 9  -2632558.78948  20438925.626    20438931.3294
  20798549.140    -1217633.314 9   -943663.62547  20798548.644    20798555.9264
  20384905.590    -4862919.832 9  -3460573.81847  20384904.914    20384912.0294
  23553699.704    11425241.792 8   8897309.03745  23553699.423    23553712.7044
  24045379.474                                    24045635.563    24045654.3884
  23420270.857     7262664.237 8   5671943.09045  23420270.874    23420279.1834
  20975629.895     -194827.674 9   -143117.80447  20975629.394    20975636.4094
  24275190.064    -3997241.349 7  -2770700.34245  24275189.858    24275211.8504
  22522912.973   -13049453.910 8 -10148418.09746  22522912.722    22522921.5294
 01  4 25 23 50  0.0000000  0 10 21 18 17 15 06 14 26 23 29 03
  21994834.099   -10049513.560 8  -7819033.16647  21994833.654    21994842.2624
  20441486.989    -3378243.155 9  -2622071.90848  20441486.603    20441492.3034
  20802366.769    -1197571.769 9   -928031.25847  20802366.262    20802373.5384
  20383775.903    -4868856.244 9  -3465199.58447  20383775.236    20383782.3714
  23574513.580    11534617.817 8   8982536.78245  23574513.303    23574526.5464
  24023880.114                                    24024137.566    24024157.5644
  23438276.611     7357284.986 8   5745673.48245  23438276.728    23438284.8144
  20981300.261     -165029.738 9   -119898.62947  20981299.738    20981306.7794
  24254398.732    -4106497.586 7  -2855834.26945  24254398.530    24254420.1914
  22510121.609   -13116672.435 8 -10200796.08546  22510121.397    22510130.2404
 01  4 25 23 50 30.0000000  0 10 21 18 17 15 06 14 26 23 29 03
  21986670.523   -10092413.022 8  -7852461.24547  21986670.085    21986678.6874
  20444108.999    -3364464.186 9  -2611335.03748  20444108.618    20444114.3354
  20806239.814    -1177218.731 9   -912171.75247  20806239.310    20806246.5854
  20382701.559    -4874501.944 9  -3469598.82547  20382700.890    20382708.0324
  23595354.257    11644135.158 8   9067874.64345  23595354.026    23595367.3654
  24002397.064                                    24002668.678    24002688.7014
  23456345.396     7452237.243 8   5819662.19945  23456345.539    23456353.6424
  20987011.728     -135015.779 9    -96511.12647  20987011.214    20987018.2404
  24233618.878    -4215693.132 7  -2940920.85745  24233618.747    24233639.8934
  22497411.816   -13183462.709 8 -10252840.38146  22497411.556    22497420.3514
 01  4 25 23 51  0.0000000  0 11 21 18 17 15 06 14 09 26 23 29 03
  21978550.228   -10135085.129 8  -7885712.16347  21978549.787    21978558.3844
  20446792.095    -3350364.536 9  -2600348.28548  20446791.711    20446797.4144
  20810168.704    -1156572.273 9   -896083.61047  20810168.200    20810175.4924
  20381682.892    -4879855.010 9  -3473770.03747  20381682.225    20381689.3664
  23616221.500    11753792.401 8   9153321.49945  23616221.359    23616234.7784
  23980931.008                                    23981212.412    23981232.7124
  24458536.694    -7986381.782 7  -6210954.64045  24458536.358    24458547.4894
  23474476.954     7547519.198 7   5893907.82145  23474477.148    23474485.2464
  20992764.207     -104786.194 9    -72955.59847  20992763.702    20992770.7314
  24212851.238    -4324824.307 7  -3025957.26845  24212851.383    24212872.2294
  22484784.226   -13249821.247 8 -10304548.25546  22484783.948    22484792.6664
 01  4 25 23 51 30.0000000  0 11 21 18 17 15 06 14 09 26 23 29 03
  21970473.183   -10177530.231 8  -7918786.19947  21970472.728    21970481.3394
  20449535.970    -3335945.363 9  -2589112.55548  20449535.581    20449541.2894
  20814153.647    -1135631.292 9   -879765.96847  20814153.151    20814160.4144
  20380720.147    -4884914.289 9  -3477712.32847  20380719.482    20380726.6034
  23637114.999    11863587.365 8   9238875.68145  23637114.905    23637128.3974
  23959482.378                                    23959762.771    23959806.9594
  24446185.945    -8051284.942 7  -6261528.38845  24446185.678    24446196.8134
  23492670.780     7643128.108 7   5968408.19645  23492670.873    23492679.0534
  20998557.517      -74342.080 9    -49232.90947  20998557.012    20998564.0414
  24192096.311    -4433888.575 7  -3110941.55045  24192096.382    24192117.2814
  22472239.198   -13315745.722 8 -10355917.90746  22472238.922    22472247.5534
 01  4 25 23 52  0.0000000  0 11 21 18 17 15 06 14 09 26 23 29 03
  21962439.062   -10219749.536 8  -7951684.28847  21962438.600    21962447.2084
  20452340.250    -3321208.698 9  -2577629.43348  20452339.860    20452345.5704
  20818194.616    -1114396.008 9   -863219.00247  20818194.124    20818201.3764
  20379813.308    -4889679.792 9  -3481425.69747  20379812.649    20379819.7574
  23658034.120    11973516.448 8   9324534.36645  23658034.033    23658047.4564
  23938051.519                                    23938358.429    23938391.2104
  24433874.930    -8115979.463 7  -6311939.53945  24433874.741    24433885.5844
  23510926.001     7739059.996 7   6043160.25745  23510926.085    23510934.3044
  21004391.216      -43685.893 9    -25344.96747  21004390.723    21004397.7314
  24171354.445    -4542884.529 7  -3195872.60945  24171354.601    24171375.4664
  22459776.993   -13381234.844 8 -10406948.32346  22459776.730    22459785.2954
 01  4 25 23 52 30.0000000  0 11 21 18 17 15 06 14 09 26 23 29 03
  21954447.875   -10261743.031 8  -7984406.43247  21954447.442    21954456.0254
  20455204.782    -3306155.445 9  -2565899.61948  20455204.407    20455210.0954
  20822291.830    -1092865.156 9   -846441.73147  20822291.338    20822298.5674
  20378962.621    -4894150.157 9  -3484909.09247  20378961.948    20378969.0624
  23678978.442    12083577.679 8   9410296.04345  23678978.314    23678991.8004
  23917267.659                                    23916960.743    23916975.1814
  24421604.215    -8180461.664 7  -6362185.25945  24421603.996    24421614.9944
  23529242.254     7835312.486 7   6118162.13045  23529242.334    23529250.6364
  21010265.076      -12818.629 9     -1292.55347  21010264.567    21010271.5684
  24150626.126    -4651809.296 7  -3280748.20145  24150626.211    24150646.6484
  22447398.077   -13446286.077 8 -10457637.53046  22447397.800    22447406.4114
 01  4 25 23 53  0.0000000  0 11 21 18 17 15 06 14 09 26 23 29 03
  21946499.566   -10303511.395 8  -8016953.13947  21946499.115    21946507.6234
  20458129.256    -3290787.288 9  -2553924.42548  20458128.872    20458134.5324
  20826445.311    -1071038.426 9   -829433.89947  20826444.822    20826452.0524
  20378168.219    -4898324.888 9  -3488162.12147  20378167.548    20378174.6384
  23699947.225    12193767.832 8   9496158.17445  23699947.157    23699960.6004
  23895873.934                                    23895579.994    23895565.8374
  24409374.276    -8244728.831 7  -6412263.43745  24409374.092    24409385.2334
  23547618.937     7931882.098 7   6193411.12345  23547619.112    23547627.3324
  21016178.703       18257.749 9     22922.80747  21016178.203    21016185.1844
  24129911.611    -4760660.968 7  -3365566.80845  24129911.651    24129932.1324
  22435102.805   -13510897.837 8 -10507984.28746  22435102.512    22435111.1344
 01  4 25 23 53 30.0000000  0 11 21 18 17 15 06 14 09 26 23 29 03
  21938594.115   -10345054.685 8  -8049324.47047  21938593.658    21938602.1224
  20461113.508    -3275104.900 9  -2541704.37648  20461113.116    20461118.7644
  20830655.466    -1048914.047 9   -812194.13347  20830654.958    20830662.2284
  20377430.388    -4902202.191 9  -3491183.38747  20377429.719    20377436.8054
  23720940.265    12304085.147 7   9582119.38245  23720940.154    23720953.5664
  23874499.684                                    23874236.690    23874188.6384
  24397186.181    -8308777.429 7  -6462171.29045  24397186.019    24397196.8934
  23566055.559     8028766.721 7   6268905.56145  23566055.658    23566063.9404
  21022132.013       49542.575 9     47300.59447  21022131.511    21022138.5124
  24109211.680    -4869436.221 7  -3450325.91145  24109211.851    24109232.0264
  22422891.785   -13575067.081 8 -10557986.22846  22422891.465    22422900.0624
 01  4 25 23 54  0.0000000  0 11 21 18 17 15 06 14 09 26 23 29 03
  21930731.476   -10386373.212 8  -8081520.66247  21930730.981    21930739.4414
  20464157.341    -3259109.428 9  -2529240.37148  20464156.959    20464162.5934
  20834922.381    -1026491.347 9   -794721.91747  20834921.844    20834929.1204
  20376749.388    -4905780.879 9  -3493971.97047  20376748.710    20376755.7724
  23741956.955    12414527.089 8   9668177.70545  23741956.835    23741970.2634
  23853145.404                                    23852922.046    23852896.1104
  24385040.414    -8372603.967 7  -6511906.10345  24385040.208    24385050.9024
  23584551.540     8125963.376 7   6344643.14745  23584551.694    23584559.8234
  21028124.702       81034.489 9     71839.74347  21028124.183    21028131.1784
  24088526.850    -4978132.609 7  -3535023.54945  24088526.852    24088546.9394
  22410765.400   -13638791.495 8 -10607641.56546  22410765.100    22410773.6004
 01  4 25 23 54 30.0000000  0 11 21 18 17 15 06 14 09 26 23 29 03
  21922911.442   -10427467.541 8  -8113542.15047  21922910.945    21922919.4544
  20467260.518    -3242802.237 9  -2516533.46348  20467260.121    20467265.7564
  20839246.233    -1003769.549 9   -777016.63347  20839245.681    20839252.9434
  20376125.410    -4909059.901 9  -3496527.04747  20376124.732    20376131.7994
  23762996.777    12525091.147 7   9754331.15945  23762996.679    23763010.1524
  23831811.459                                    23831655.698    23831617.5644
  24372937.335    -8436205.323 7  -6561465.47645  24372937.207    24372947.8904
  23603106.316     8223469.066 8   6420621.53245  23603106.499    23603114.6824
  21034156.565      112732.017 9     96539.11047  21034156.047    21034163.0314
  24067857.510    -5086747.682 7  -3619657.82345  24067857.480    24067877.4194
  22398723.940   -13702069.348 8 -10656948.91346  22398723.637    22398732.1674
 01  4 25 23 55  0.0000000  0 11 21 18 17 15 06 14 09 26 23 29 03
  21915133.919   -10468338.268 8  -8145389.40247  21915133.429    21915141.9454
  20470422.650    -3226185.216 9  -2503585.12748  20470422.252    20470427.8764
  20843627.056     -980748.147 9   -759077.89447  20843626.528    20843633.7684
  20375558.562    -4912038.700 9  -3498848.18447  20375557.875    20375564.9494
  23784059.318    12635774.466 7   9840577.54445  23784059.128    23784072.7744
  23810498.306                                    23810429.852    23810423.3194
  24360877.701    -8499578.807 7  -6610847.27645  24360877.546    24360888.1884
  23621719.362     8321280.656 8   6496838.29845  23621719.514    23621727.7124
  21040227.176      144633.365 9    121397.30347  21040226.684    21040233.6464
  24047204.086    -5195279.549 7  -3704227.25145  24047203.978    24047223.7894
  22386767.908   -13764898.394 8 -10705906.55346  22386767.584    22386776.1454
 01  4 25 23 55 30.0000000  0 11 21 18 17 15 06 14 09 26 23 29 03
  21907398.872   -10508985.971 8  -8177062.87147  21907398.384    21907406.8644
  20473643.561    -3209259.260 9  -2490396.06648  20473643.162    20473648.7784
  20848065.097     -957426.260 9   -740905.01247  20848064.565    20848071.7764
  20375049.062    -4914716.152 9  -3500934.50147  20375048.368    20375055.4414
  23805144.082    12746574.533 7   9926914.90745  23805143.941    23805157.6794
  23789206.593                                    23789182.269    23789135.5824
  24348861.917    -8562721.399 7  -6660049.14645  24348861.795    24348872.4064
  23640390.023     8419395.192 8   6573291.10645  23640390.158    23640398.3794
  21046336.379      176737.237 9    146413.30547  21046335.865    21046342.8104
  24026566.850    -5303725.776 7  -3788729.97145  24026566.666    24026586.2374
  22374897.674   -13827276.532 8 -10754512.82946  22374897.381    22374905.9764
 01  4 25 23 56  0.0000000  0 11 21 18 17 15 06 14 09 26 23 29 03
  21899706.224   -10549410.784 8  -8208562.65247  21899705.749    21899714.1604
  20476923.033    -3192025.550 9  -2476967.19548  20476922.621    20476928.2354
  20852560.498     -933802.888 9   -722497.20647  20852559.963    20852567.1934
  20374597.117    -4917091.155 9  -3502785.14347  20374596.440    20374603.4884
  23826250.690    12857489.104 7  10013341.48545  23826250.510    23826264.2504
  23767936.807                                    23768120.842    23768006.0194
  24336890.797    -8625629.617 7  -6709068.43445  24336890.501    24336901.3754
  23659117.767     8517809.968 8   6649977.88745  23659117.933    23659126.2824
  21052483.885      209042.472 9    171586.21547  21052483.369    21052490.3054
  24005946.343    -5412083.579 7  -3873163.81145  24005946.271    24005965.5304
  22363113.668   -13889201.557 8 -10802766.03746  22363113.419    22363121.9494
 01  4 25 23 56 30.0000000  0 11 21 18 17 15 06 14 09 26 23 29 03
  21892056.016   -10589612.886 8  -8239888.90547  21892055.525    21892063.8734
  20480260.750    -3174485.559 9  -2463299.66648  20480260.341    20480265.9434
  20857113.438     -909877.184 9   -703853.81947  20857112.901    20857120.1424
  20374202.937    -4919162.718 9  -3504399.34447  20374202.253    20374209.2914
  23847378.548    12968515.704 7  10099855.36445  23847378.383    23847392.0694
  23746689.348                                    23746863.988    23746839.7104
  24324964.748    -8688300.257 7  -6757902.56645  24324964.618    24324975.3454
  23677902.138     8616522.090 8   6726896.35045  23677902.319    23677910.5594
  21058669.399      241547.581 9    196914.86447  21058668.867    21058675.8074
  23985343.191    -5520350.548 7  -3957526.88545  23985343.074    23985362.2254
  22351416.386   -13950671.250 8 -10850664.45046  22351416.117    22351424.6004
 01  4 25 23 57  0.0000000  0 11 21 18 17 15 06 14 09 26 23 29 03
  21884447.811   -10629593.703 8  -8271042.71447  21884447.332    21884455.6974
  20483656.539    -3156640.570 9  -2449394.47448  20483656.140    20483661.7724
  20861723.974     -885648.618 9   -684974.43047  20861723.439    20861730.6774
  20373866.650    -4920930.006 9  -3505776.44547  20373865.936    20373873.0034
  23868527.249    13079651.732 7  10186454.48845  23868527.192    23868540.9984
  23725464.797                                    23725659.368    23725662.4634
  24313084.577    -8750730.375 7  -6806549.25945  24313084.203    24313095.3514
  23696742.524     8715528.479 8   6804044.11745  23696742.716    23696750.9404
  21064892.656      274250.964 9    222398.01647  21064892.129    21064899.0714
  23964757.745    -5628524.512 7  -4041817.48245  23964757.585    23964776.6314
  22339806.073   -14011683.523 8 -10898206.42746  22339805.775    22339814.2674
 01  4 25 23 57 30.0000000  0 11 21 18 17 15 06 14 09 26 23 29 03
  21876881.739   -10669353.269 8  -8302024.11847  21876881.280    21876889.7074
  20487110.132    -3138491.664 9  -2435252.45948  20487109.749    20487115.3714
  20866392.379     -861116.048 9   -665858.15247  20866391.867    20866399.0864
  20373588.461    -4922391.684 9  -3506915.40347  20373587.769    20373594.8094
  23889696.393    13190894.859 7  10273137.08445  23889696.377    23889710.2714
  23704263.603                                    23704475.253    23704493.8444
  24301250.763    -8812916.463 7  -6855005.79345  24301250.364    24301261.6264
  23715638.502     8814826.375 8   6881419.03745  23715638.625    23715646.8454
  21071153.400      307151.443 9    248034.75247  21071152.865    21071159.8134
  23944190.553    -5736602.488 7  -4126033.30545  23944190.443    23944209.3454
  22328283.122   -14072236.399 8 -10945390.42346  22328282.861    22328291.3944
 01  4 25 23 58  0.0000000  0 11 21 18 17 15 06 14 09 26 23 29 03
  21869357.782   -10708891.664 9  -8332833.19247  21869357.339    21869365.7304
  20490621.385    -3120039.954 9  -2420874.49848  20490620.988    20490626.6164
  20871118.803     -836278.779 9   -646504.45347  20871118.285    20871125.5054
  20373368.670    -4923546.754 9  -3507815.45147  20373367.991    20373375.0224
  23910885.516    13302242.447 7  10359901.06245  23910885.408    23910899.5844
  23683086.367                                    23683323.306    23683340.1434
  24289464.052    -8874855.506 7  -6903269.85745  24289463.785    24289475.0704
  23734589.208     8914412.841 8   6959018.81045  23734589.355    23734597.5834
  21077451.425      340247.644 9    273823.99747  21077450.904    21077457.8404
  23923642.030    -5844582.401 7  -4210172.73545  23923641.939    23923660.6474
  22316848.074   -14132327.705 8 -10992214.77046  22316847.828    22316856.3284
 01  4 25 23 58 30.0000000  0 11 21 18 17 15 06 14 09 26 23 29 03
  21861875.730   -10748210.015 8  -8363470.79647  21861875.249    21861883.6004
  20494189.846    -3101287.550 9  -2406262.22348  20494189.458    20494195.0744
  20875903.209     -811136.436 9   -626913.02447  20875902.703    20875909.9144
  20373207.244    -4924394.963 9  -3508476.38047  20373206.553    20373213.5814
  23932093.851    13413691.485 7  10446744.09645  23932093.685    23932108.0064
  23661933.403                                    23662182.452    23662226.9384
  24277724.698    -8936545.111 7  -6951339.52245  24277724.412    24277735.8474
  23753594.126     9014284.397 8   7036840.73045  23753594.339    23753602.5444
  21083786.348      373537.721 9    299764.31447  21083785.789    21083792.7434
  23903112.638    -5952462.163 7  -4294234.14745  23903112.451    23903130.9994
  22305501.213   -14191955.945 8 -11038678.27346  22305500.963    22305509.4644
